Latitude: N 50° 09' 49" Longitude: W 05° 11' 53" Elevation: 168m ASL

There are 38 visitors online

Adverts

<- Previous Day | Today | Next Day ->

All Data for 15 October 2019

Time
A - D
Temp
A - D
Dew Point
A - D
Humidity
A - D
Pressure
A - D
Wind
A - D
Wind Dir Gust
A - D
Rain Rate
A - D
Rain Total
00:00 11.5 11.0 97 995.5 3.1 S 5.4 0.0 0.0
00:01 11.5 11.0 97 995.4 3.1 S 4.5 0.0 0.0
00:02 11.5 11.0 97 995.4 3.1 S 3.8 0.0 0.0
00:03 11.5 11.0 97 995.3 3.1 S 3.8 0.0 0.0
00:04 11.5 11.0 97 995.4 3.1 S 3.8 0.0 0.0
00:06 11.3 10.8 97 995.4 0.0 SE 3.1 0.0 0.0
00:07 11.3 10.8 97 995.5 0.0 SE 3.1 0.0 0.0
00:08 11.3 10.8 97 995.4 0.0 SE 3.1 0.0 0.0
00:09 11.3 10.8 97 995.3 0.0 SE 3.1 0.0 0.0
00:10 11.3 10.8 97 995.4 0.0 SE 3.1 0.0 0.0
00:11 11.3 10.8 97 995.3 0.0 SE 3.1 0.0 0.0
00:12 11.3 10.8 97 995.3 0.0 SE 3.1 0.0 0.0
00:13 11.3 10.8 97 995.4 0.0 SE 3.1 0.0 0.0
00:14 11.3 10.8 97 995.2 0.7 SE 3.1 0.0 0.0
00:15 11.2 10.7 97 995.3 1.6 SE 3.1 0.0 0.0
00:16 11.2 10.7 97 995.3 0.0 SE 1.6 0.0 0.0
00:17 11.2 10.7 97 995.2 1.6 SE 1.6 0.0 0.0
00:18 11.2 10.7 97 995.3 0.7 SE 1.6 0.0 0.0
00:19 11.1 10.6 97 995.4 1.6 SE 1.6 0.0 0.0
00:21 11.1 10.6 97 995.3 1.6 SE 2.2 0.0 0.0
00:22 11.1 10.6 97 995.6 1.6 SE 2.2 0.0 0.0
00:23 11.1 10.6 97 995.4 1.6 SE 2.2 0.0 0.0
00:24 11.0 10.5 97 995.4 1.6 SE 2.2 0.0 0.0
00:25 11.0 10.5 97 995.3 0.0 SE 2.2 0.0 0.0
00:26 11.0 10.5 97 995.4 0.0 SE 2.2 0.0 0.0
00:27 11.0 10.5 97 995.4 0.0 SE 2.2 0.0 0.0
00:28 10.9 10.3 96 995.3 0.0 SE 2.2 0.0 0.0
00:29 10.9 10.4 97 995.4 0.0 SE 2.2 0.0 0.0
00:30 10.9 10.4 97 995.2 0.0 SE 2.2 0.0 0.0
00:31 10.9 10.3 96 995.3 0.0 SE 2.2 0.0 0.0
00:32 10.9 10.4 97 995.2 0.7 SE 1.6 0.0 0.0
00:33 10.9 10.4 97 995.2 0.7 SE 1.6 0.0 0.0
00:34 10.8 10.3 97 995.3 0.0 SE 1.6 0.0 0.0
00:36 10.8 10.2 96 995.4 0.0 SE 0.7 0.0 0.0
00:37 10.8 10.2 96 995.6 0.0 SE 0.7 0.0 0.0
00:38 10.7 10.2 97 995.5 0.0 SE 0.7 0.0 0.0
00:39 10.7 10.1 96 995.6 0.0 SE 0.7 0.0 0.0
00:40 10.7 10.1 96 995.4 0.0 SE 0.7 0.0 0.0
00:41 10.7 10.1 96 995.5 0.0 SE 0.7 0.0 0.0
00:42 10.7 10.1 96 995.5 0.0 SE 0.7 0.0 0.0
00:43 10.7 10.1 96 995.5 0.7 SE 0.7 0.0 0.0
00:44 10.6 10.1 97 995.5 0.0 SE 0.7 0.0 0.0
00:45 10.6 10.0 96 995.5 0.0 SE 0.7 0.0 0.0
00:46 10.6 10.0 96 995.6 0.0 SE 0.7 0.0 0.0
00:47 10.6 10.0 96 995.4 0.0 SE 0.7 0.0 0.0
00:48 10.6 10.0 96 995.4 0.0 SE 0.7 0.0 0.0
00:49 10.5 9.9 96 995.6 0.7 SE 0.7 0.0 0.0
00:51 10.6 10.0 96 995.6 0.0 SE 0.7 0.0 0.0
00:52 10.6 10.0 96 995.5 0.0 SE 0.7 0.0 0.0
00:53 10.5 9.9 96 995.4 2.2 S 2.2 0.0 0.0
00:54 10.6 10.1 97 995.5 3.1 WSW 3.1 0.0 0.0
00:55 10.6 10.1 97 995.5 3.1 WSW 3.1 0.0 0.0
00:56 10.6 10.1 97 995.5 3.1 WSW 3.1 0.0 0.0
00:57 10.6 10.1 97 995.6 2.2 WSW 3.1 0.0 0.0
00:58 10.6 10.1 97 995.6 1.6 WSW 3.1 0.0 0.0
00:59 10.5 10.0 97 995.6 0.7 WSW 3.1 0.0 0.0
01:00 10.6 10.1 97 995.6 1.6 WSW 3.1 0.0 0.0
01:01 10.6 10.1 97 995.6 1.6 WSW 3.1 0.0 0.0
01:02 10.6 10.1 97 995.7 1.6 WSW 3.1 0.0 0.0
01:03 10.6 10.1 97 995.6 1.6 WSW 3.1 0.0 0.0
01:04 10.6 10.1 97 995.7 1.6 WSW 3.1 0.0 0.0
01:05 10.5 10.0 97 995.6 3.1 SE 3.1 0.0 0.0
01:07 10.5 10.0 97 995.7 3.8 SE 3.8 0.0 0.0
01:08 10.6 10.1 97 995.6 3.8 SE 3.8 0.0 0.0
01:09 10.5 10.0 97 995.6 3.8 SE 3.8 0.0 0.0
01:10 10.5 10.0 97 995.6 3.8 SE 3.8 0.0 0.0
01:11 10.6 10.1 97 995.7 3.8 SE 3.8 0.0 0.0
01:12 10.6 10.1 97 995.6 3.1 SE 3.8 0.0 0.0
01:13 10.6 10.1 97 995.6 3.1 SE 3.8 0.0 0.0
01:14 10.5 10.0 97 995.6 3.8 SE 3.8 0.0 0.0
01:15 10.5 10.0 97 995.6 4.5 SE 4.5 0.0 0.0
01:16 10.5 10.0 97 995.6 3.8 SE 4.5 0.0 0.0
01:17 10.5 10.0 97 995.7 3.8 SE 4.5 0.0 0.0
01:18 10.5 10.0 97 995.7 3.8 SE 4.5 0.0 0.0
01:19 10.5 10.0 97 995.7 3.1 SE 4.5 0.0 0.0
01:20 10.5 10.0 97 995.7 3.1 SE 4.5 0.0 0.0
01:21 10.5 10.0 97 995.6 2.2 SE 4.5 0.0 0.0
01:22 10.5 10.0 97 995.7 3.1 SE 4.5 0.0 0.0
01:23 10.5 10.0 97 995.7 2.2 SE 4.5 0.0 0.0
01:24 10.5 10.0 97 995.5 0.7 SE 4.5 0.0 0.0
01:25 10.4 9.9 97 995.7 0.0 SE 4.5 0.0 0.0
01:26 10.4 9.9 97 995.7 0.0 SE 3.8 0.0 0.0
01:27 10.4 9.9 97 995.7 0.0 SE 3.8 0.0 0.0
01:29 10.3 9.7 96 995.7 0.7 SE 3.1 0.0 0.0
01:30 10.2 9.6 96 995.7 2.2 SE 3.1 0.0 0.0
01:31 10.2 9.7 97 995.6 2.2 SE 3.1 0.0 0.0
01:32 10.2 9.7 97 995.7 3.8 SE 3.8 0.0 0.0
01:33 10.2 9.7 97 995.7 3.8 SE 4.5 0.0 0.0
01:34 10.2 9.7 97 995.7 3.8 SE 4.5 0.0 0.0
01:35 10.2 9.6 96 995.7 5.4 SSE 5.4 0.0 0.0
01:36 10.2 9.7 97 995.6 4.5 SE 5.4 0.0 0.0
01:37 10.2 9.7 97 995.7 5.4 SE 5.4 0.0 0.0
01:38 10.2 9.7 97 995.7 4.5 SE 5.4 0.0 0.0
01:39 10.2 9.7 97 995.6 4.5 SE 5.4 0.0 0.0
01:40 10.2 9.7 97 995.7 4.5 SE 5.4 0.0 0.0
01:41 10.2 9.7 97 995.8 4.5 S 5.4 0.0 0.0
01:43 10.3 9.8 97 995.7 4.5 S 5.4 0.0 0.0
01:44 10.3 9.8 97 995.7 4.5 SE 5.4 0.0 0.0
01:45 10.3 9.8 97 995.6 3.8 SE 5.4 0.0 0.0
01:46 10.3 9.8 97 995.6 3.8 E 5.4 0.0 0.0
01:47 10.3 9.8 97 995.7 3.1 SE 4.5 0.0 0.0
01:48 10.3 9.8 97 995.7 3.8 SE 4.5 0.0 0.0
01:49 10.3 9.8 97 995.6 3.1 SE 4.5 0.0 0.0
01:50 10.3 9.8 97 995.7 3.1 SE 4.5 0.0 0.0
01:51 10.3 9.8 97 995.8 3.1 SE 4.5 0.0 0.0
01:52 10.3 9.8 97 995.7 3.1 SE 4.5 0.0 0.0
01:53 10.3 9.8 97 995.7 3.1 SE 4.5 0.0 0.0
01:54 10.3 9.8 97 995.7 3.1 SE 4.5 0.0 0.0
01:55 10.3 9.8 97 995.7 2.2 SE 3.8 0.0 0.0
01:56 10.3 9.8 97 995.7 1.6 SE 3.8 0.0 0.0
01:58 10.3 9.8 97 995.7 0.0 SE 3.1 0.0 0.0
01:59 10.3 9.8 97 995.8 0.0 SE 3.1 0.0 0.0
02:00 10.3 9.8 97 996.0 0.0 SE 3.1 0.0 0.0
02:01 10.3 9.8 97 995.9 0.0 SE 3.1 0.0 0.0
02:02 10.3 9.8 97 996.0 0.0 SE 3.1 0.0 0.0
02:03 10.3 9.8 97 996.0 0.0 SE 3.1 0.0 0.0
02:04 10.3 9.8 97 996.0 0.0 SE 3.1 0.0 0.0
02:05 10.3 9.8 97 996.0 0.0 SE 1.6 0.0 0.0
02:06 10.3 9.8 97 995.9 0.0 SE 1.6 0.0 0.0
02:07 10.3 9.8 97 996.0 0.0 SE 1.6 0.0 0.0
02:08 10.2 9.7 97 996.0 0.0 E 0.0 0.0 0.0
02:09 10.2 9.7 97 996.0 0.0 E 0.0 0.0 0.0
02:10 10.2 9.7 97 995.8 0.0 E 0.0 0.0 0.0
02:12 10.2 9.7 97 996.0 0.7 E 0.7 0.0 0.0
02:13 10.1 9.6 97 995.9 0.0 E 0.7 0.0 0.0
02:14 10.1 9.6 97 996.0 0.0 E 0.7 0.0 0.0
02:15 10.1 9.6 97 995.9 0.0 E 0.7 0.0 0.0
02:16 10.1 9.6 97 995.9 0.0 E 0.7 0.0 0.0
02:17 10.1 9.6 97 996.1 0.0 E 0.7 0.0 0.0
02:18 10.1 9.6 97 996.1 0.0 E 0.7 0.0 0.0
02:19 10.1 9.6 97 996.0 0.0 E 0.7 0.0 0.0
02:20 10.1 9.6 97 996.1 0.0 E 0.7 0.0 0.0
02:21 10.1 9.6 97 995.9 0.0 E 0.7 0.0 0.0
02:22 10.1 9.6 97 996.0 0.0 E 0.7 0.0 0.0
02:23 10.1 9.6 97 996.0 0.0 E 0.0 0.0 0.0
02:24 10.0 9.5 97 996.1 0.0 E 0.0 0.0 0.0
02:25 10.0 9.5 97 996.0 0.0 E 0.0 0.0 0.0
02:27 10.0 9.5 97 995.9 0.0 E 0.0 0.0 0.0
02:28 10.0 9.5 97 995.9 0.0 E 0.0 0.0 0.0
02:29 10.0 9.5 97 995.9 0.0 E 0.0 0.0 0.0
02:30 10.0 9.5 97 995.8 0.0 E 0.0 0.0 0.0
02:31 10.0 9.5 97 995.9 0.0 E 0.0 0.0 0.0
02:32 10.0 9.5 97 995.9 0.0 E 0.0 0.0 0.0
02:33 10.0 9.5 97 996.0 0.0 E 0.0 0.0 0.0
02:34 10.0 9.5 97 995.8 0.0 E 0.0 0.0 0.0
02:35 10.0 9.5 97 995.8 0.0 E 0.0 0.0 0.0
02:36 10.0 9.5 97 995.8 0.0 E 0.0 0.0 0.0
02:37 10.0 9.5 97 996.1 0.0 E 0.0 0.0 0.0
02:38 10.0 9.5 97 996.1 0.0 E 0.0 0.0 0.0
02:39 9.9 9.4 97 996.1 0.0 E 0.0 0.0 0.0
02:40 9.9 9.4 97 996.1 0.7 E 0.7 0.0 0.0
02:42 9.9 9.4 97 996.0 0.7 E 0.7 0.0 0.0
02:43 9.9 9.4 97 996.2 1.6 E 1.6 0.0 0.0
02:44 9.9 9.4 97 996.2 1.6 E 1.6 0.0 0.0
02:45 9.8 9.3 97 996.1 0.7 E 1.6 0.0 0.0
02:46 9.8 9.3 97 996.0 0.7 E 1.6 0.0 0.0
02:47 9.9 9.4 97 996.0 1.6 E 1.6 0.0 0.0
02:48 9.9 9.4 97 996.1 1.6 E 1.6 0.0 0.0
02:49 9.9 9.4 97 996.2 0.7 E 1.6 0.0 0.0
02:50 9.8 9.3 97 996.2 1.6 E 1.6 0.0 0.0
02:51 9.8 9.3 97 996.1 2.2 E 2.2 0.0 0.0
02:52 9.9 9.4 97 996.1 2.2 E 2.2 0.0 0.0
02:53 9.9 9.4 97 996.0 2.2 E 2.2 0.0 0.0
02:54 9.9 9.4 97 996.1 0.7 E 2.2 0.0 0.0
02:55 9.9 9.4 97 996.1 0.0 E 2.2 0.0 0.0
02:57 9.9 9.4 97 996.2 0.0 E 2.2 0.0 0.0
02:58 9.9 9.4 97 996.2 0.7 E 2.2 0.0 0.0
02:59 9.9 9.4 97 996.1 0.7 E 2.2 0.0 0.0
03:00 9.9 9.4 97 996.1 0.7 E 2.2 0.0 0.0
03:01 9.9 9.4 97 996.1 0.7 E 2.2 0.0 0.0
03:02 9.9 9.4 97 996.2 0.7 E 2.2 0.0 0.0
03:03 9.9 9.4 97 996.1 0.7 E 0.7 0.0 0.0
03:04 9.9 9.4 97 996.2 0.7 E 0.7 0.0 0.0
03:05 9.9 9.4 97 996.2 0.7 E 0.7 0.0 0.0
03:06 9.9 9.4 97 996.2 0.7 E 0.7 0.0 0.0
03:07 9.9 9.4 97 996.2 0.7 E 0.7 0.0 0.0
03:08 9.9 9.4 97 996.2 0.7 E 0.7 0.0 0.0
03:09 9.9 9.4 97 996.2 0.7 E 0.7 0.0 0.0
03:10 9.9 9.4 97 996.2 1.6 E 1.6 0.0 0.0
03:11 9.9 9.4 97 996.1 1.6 NW 1.6 0.0 0.0
03:12 9.9 9.4 97 996.2 1.6 N 1.6 0.0 0.0
03:14 9.9 9.4 97 996.1 2.2 N 2.2 0.0 0.0
03:15 9.9 9.4 97 996.0 2.2 N 2.2 0.0 0.0
03:16 9.9 9.4 97 996.2 1.6 N 2.2 0.0 0.0
03:17 9.9 9.4 97 996.1 1.6 N 2.2 0.0 0.0
03:18 10.0 9.5 97 996.2 1.6 NE 2.2 0.0 0.0
03:19 10.0 9.5 97 996.2 1.6 NE 2.2 0.0 0.0
03:20 9.9 9.4 97 996.2 0.7 NE 2.2 0.0 0.0
03:21 10.0 9.5 97 996.1 0.7 NE 2.2 0.0 0.0
03:22 10.0 9.5 97 996.0 0.7 NE 2.2 0.0 0.0
03:23 10.0 9.5 97 996.1 0.0 NE 2.2 0.0 0.0
03:24 10.0 9.5 97 996.0 0.0 NE 2.2 0.0 0.0
03:25 10.0 9.5 97 996.1 0.0 NE 2.2 0.0 0.0
03:26 10.0 9.5 97 996.1 0.0 NE 1.6 0.0 0.0
03:28 10.0 9.5 97 996.0 0.0 NE 1.6 0.0 0.0
03:29 10.0 9.5 97 996.0 0.0 NE 1.6 0.0 0.0
03:30 10.0 9.5 97 996.0 0.0 NE 0.7 0.0 0.0
03:31 10.0 9.5 97 996.0 0.0 NE 0.7 0.0 0.0
03:32 10.0 9.5 97 995.9 0.0 NE 0.0 0.0 0.0
03:33 9.9 9.4 97 996.0 0.0 NE 0.0 0.0 0.0
03:34 9.9 9.4 97 996.0 0.0 NE 0.0 0.0 0.0
03:35 9.9 9.4 97 995.9 0.0 NE 0.0 0.0 0.0
03:36 9.9 9.4 97 996.0 0.0 NE 0.0 0.0 0.0
03:37 9.9 9.4 97 996.2 0.0 NE 0.0 0.0 0.0
03:38 9.9 9.4 97 996.0 0.0 NE 0.0 0.0 0.0
03:39 9.9 9.4 97 996.1 0.0 NE 0.0 0.0 0.0
03:40 9.9 9.4 97 996.1 0.0 NE 0.0 0.0 0.0
03:41 9.9 9.4 97 996.2 0.0 NE 0.0 0.0 0.0
03:42 9.9 9.4 97 996.1 0.0 NE 0.7 0.0 0.0
03:43 9.9 9.4 97 996.0 0.7 NE 0.7 0.0 0.0
03:45 10.0 9.5 97 996.0 0.7 NE 0.7 0.0 0.0
03:46 9.9 9.4 97 996.1 0.7 NE 0.7 0.0 0.0
03:47 9.9 9.4 97 996.2 0.0 NE 0.7 0.0 0.0
03:48 9.9 9.4 97 996.0 0.0 NE 0.7 0.0 0.0
03:49 10.0 9.5 97 996.1 0.0 NE 0.7 0.0 0.0
03:50 10.0 9.5 97 996.1 0.0 NE 0.7 0.0 0.0
03:51 10.0 9.5 97 996.0 1.6 NE 1.6 0.0 0.0
03:52 10.0 9.5 97 996.1 1.6 WSW 1.6 0.0 0.0
03:54 9.9 9.4 97 995.9 0.0 NW 1.6 0.0 0.0
03:55 9.9 9.4 97 996.0 0.7 NW 1.6 0.0 0.0
03:56 9.9 9.4 97 996.1 0.7 NW 1.6 0.0 0.0
03:57 9.8 9.3 97 996.0 0.0 NW 1.6 0.0 0.0
03:58 9.8 9.3 97 996.2 0.0 NW 1.6 0.0 0.0
03:59 9.8 9.3 97 996.2 0.0 NW 1.6 0.0 0.0
04:00 9.8 9.3 97 996.1 0.0 NW 1.6 0.0 0.0
04:01 9.8 9.3 97 996.1 0.0 NW 1.6 0.0 0.0
04:02 9.8 9.3 97 996.0 0.0 NW 1.6 0.0 0.0
04:03 9.8 9.3 97 996.1 0.0 NW 0.7 0.0 0.0
04:04 9.8 9.3 97 996.0 0.0 NW 0.7 0.0 0.0
04:05 9.8 9.3 97 996.1 0.0 NW 0.7 0.0 0.0
04:06 9.8 9.3 97 996.1 0.0 NW 0.7 0.0 0.0
04:08 9.9 9.6 98 996.3 0.0 SE 0.7 0.0 0.0
04:09 10.0 9.7 98 996.2 0.0 SE 0.7 0.0 0.0
04:10 10.0 9.7 98 996.3 0.0 SE 0.7 0.0 0.0
04:11 10.0 9.7 98 996.3 0.0 SE 0.7 0.0 0.0
04:12 10.0 9.7 98 996.3 0.0 SE 0.7 0.0 0.0
04:13 10.0 9.7 98 996.2 0.0 SE 0.7 0.0 0.0
04:14 9.9 9.6 98 996.3 0.0 SE 0.7 0.0 0.0
04:15 9.9 9.6 98 996.2 0.0 SE 0.7 0.0 0.0
04:16 9.9 9.6 98 996.2 0.0 SE 0.7 0.0 0.0
04:17 9.8 9.5 98 996.3 0.0 SE 0.7 0.0 0.0
04:18 9.8 9.3 97 996.3 0.0 SE 0.0 0.0 0.0
04:19 9.8 9.3 97 996.3 0.0 SE 0.0 0.0 0.0
04:20 9.7 9.2 97 996.2 0.0 SE 0.0 0.0 0.0
04:22 9.7 9.4 98 996.2 1.6 NE 1.6 0.0 0.0
04:23 9.7 9.4 98 996.3 0.7 NE 1.6 0.0 0.0
04:24 9.7 9.4 98 996.3 0.7 NE 1.6 0.0 0.0
04:25 9.7 9.4 98 996.2 0.7 NE 1.6 0.0 0.0
04:26 9.7 9.4 98 996.1 0.7 NE 1.6 0.0 0.0
04:27 9.7 9.4 98 996.1 0.7 NE 1.6 0.0 0.0
04:28 9.6 9.3 98 996.3 0.0 NE 1.6 0.0 0.0
04:29 9.6 9.3 98 996.3 0.0 NE 1.6 0.0 0.0
04:30 9.6 9.3 98 996.3 0.0 NE 1.6 0.0 0.0
04:31 9.6 9.3 98 996.3 0.7 NE 1.6 0.0 0.0
04:32 9.6 9.3 98 996.3 0.0 NE 1.6 0.0 0.0
04:33 9.6 9.3 98 996.1 0.7 NE 0.7 0.0 0.0
04:34 9.6 9.3 98 996.2 0.7 NE 0.7 0.0 0.0
04:36 9.6 9.3 98 996.2 0.7 NE 1.6 0.0 0.0
04:37 9.6 9.3 98 996.1 0.0 NE 1.6 0.0 0.0
04:38 9.6 9.3 98 996.2 0.0 NE 1.6 0.0 0.0
04:39 9.5 9.2 98 996.1 0.0 NE 1.6 0.0 0.0
04:40 9.5 9.2 98 996.2 0.0 NE 1.6 0.0 0.0
04:41 9.4 9.1 98 996.2 0.0 NE 1.6 0.0 0.0
04:42 9.4 9.1 98 996.2 0.0 NE 1.6 0.0 0.0
04:43 9.4 8.9 97 996.2 0.0 NE 1.6 0.0 0.0
04:44 9.3 8.8 97 996.3 0.0 NE 1.6 0.0 0.0
04:45 9.2 8.8 97 996.3 0.0 NE 0.7 0.0 0.0
04:46 9.2 8.8 97 996.3 0.0 NE 0.7 0.0 0.0
04:47 9.2 8.8 97 996.2 0.0 NE 0.0 0.0 0.0
04:48 9.2 8.8 97 996.2 0.0 NE 0.0 0.0 0.0
04:49 9.1 8.7 97 996.4 0.0 NE 0.0 0.0 0.0
04:50 9.1 8.8 98 996.4 0.0 NE 0.0 0.0 0.0
04:52 9.1 8.7 97 996.2 0.0 NE 0.0 0.0 0.0
04:53 9.1 8.7 97 996.5 1.6 NW 1.6 0.0 0.0
04:54 9.1 8.8 98 996.4 1.6 NW 1.6 0.0 0.0
04:55 9.0 8.6 97 996.2 0.0 NW 1.6 0.0 0.0
04:56 9.0 8.6 97 996.3 0.0 NW 1.6 0.0 0.0
04:57 9.0 8.6 97 996.4 0.0 NW 1.6 0.0 0.0
04:58 8.9 8.5 97 996.4 1.6 NW 1.6 0.0 0.0
04:59 8.9 8.5 97 996.4 1.6 NW 1.6 0.0 0.0
05:00 8.8 8.4 97 996.3 0.7 NW 1.6 0.0 0.0
05:01 8.8 8.4 97 996.6 0.7 NW 1.6 0.0 0.0
05:02 8.8 8.4 97 996.6 0.7 NW 1.6 0.0 0.0
05:03 8.8 8.4 97 996.4 0.7 NW 1.6 0.0 0.0
05:04 8.8 8.4 97 996.3 0.7 NW 1.6 0.0 0.0
05:05 8.8 8.4 97 996.6 0.7 NW 1.6 0.0 0.0
05:06 8.8 8.4 97 996.4 0.7 NW 1.6 0.0 0.0
05:07 8.8 8.4 97 996.6 0.7 NW 1.6 0.0 0.0
05:08 8.7 8.3 97 996.5 0.0 NW 1.6 0.0 0.0
05:10 8.7 8.3 97 996.5 0.7 NW 0.7 0.0 0.0
05:11 8.6 8.2 97 996.5 1.6 NW 1.6 0.0 0.0
05:12 8.7 8.3 97 996.5 1.6 NW 1.6 0.0 0.0
05:13 8.7 8.3 97 996.5 1.6 NW 1.6 0.0 0.0
05:14 8.7 8.3 97 996.4 1.6 NW 1.6 0.0 0.0
05:15 8.7 8.3 97 996.6 1.6 NW 1.6 0.0 0.0
05:16 8.7 8.3 97 996.6 1.6 NW 1.6 0.0 0.0
05:17 8.8 8.4 97 996.4 0.0 NW 1.6 0.0 0.0
05:18 8.8 8.5 98 996.3 0.0 NW 1.6 0.0 0.0
05:19 8.8 8.5 98 996.3 0.0 NW 1.6 0.0 0.0
05:20 8.8 8.5 98 996.5 0.0 NW 1.6 0.0 0.0
05:21 8.8 8.5 98 996.3 0.0 NW 1.6 0.0 0.0
05:22 8.8 8.5 98 996.4 0.0 NW 1.6 0.0 0.0
05:24 8.7 8.4 98 996.6 0.0 NW 1.6 0.0 0.0
05:25 8.6 8.2 97 996.5 0.0 NW 1.6 0.0 0.0
05:26 8.6 8.2 97 996.5 0.0 NW 0.0 0.0 0.0
05:27 8.6 8.2 97 996.5 0.0 NW 0.0 0.0 0.0
05:28 8.5 8.1 97 996.6 0.0 NW 0.0 0.0 0.0
05:29 8.5 8.1 97 996.5 0.0 NW 0.0 0.0 0.0
05:30 8.5 8.1 97 996.5 0.0 NW 0.0 0.0 0.0
05:31 8.5 8.1 97 996.5 0.0 NW 0.0 0.0 0.0
05:32 8.5 8.1 97 996.5 0.0 NW 0.0 0.0 0.0
05:33 8.5 8.1 97 996.4 0.0 NW 0.0 0.0 0.0
05:34 8.5 8.1 97 996.6 0.0 NW 0.0 0.0 0.0
05:35 8.4 8.0 97 996.6 0.0 NW 0.0 0.0 0.0
05:36 8.4 8.0 97 996.7 0.0 NW 0.0 0.0 0.0
05:38 8.3 7.9 97 996.6 0.0 NW 0.0 0.0 0.0
05:39 8.2 7.8 97 996.6 0.0 NW 0.0 0.0 0.0
05:40 8.2 7.8 97 996.6 0.0 NW 0.0 0.0 0.0
05:41 8.1 7.7 97 996.7 0.0 NW 0.0 0.0 0.0
05:42 8.1 7.7 97 996.5 0.7 NW 0.7 0.0 0.0
05:43 8.1 7.7 97 996.5 0.7 NW 0.7 0.0 0.0
05:44 8.0 7.6 97 996.6 0.7 NW 0.7 0.0 0.0
05:45 8.0 7.6 97 996.6 0.7 NW 0.7 0.0 0.0
05:46 8.0 7.6 97 996.5 0.0 NW 0.7 0.0 0.0
05:47 8.0 7.6 97 996.6 0.0 NW 0.7 0.0 0.0
05:48 8.0 7.6 97 996.6 0.0 NW 0.7 0.0 0.0
05:49 8.0 7.6 97 996.4 0.0 NW 0.7 0.0 0.0
05:50 8.0 7.6 97 996.6 0.0 NW 0.7 0.0 0.0
05:52 8.0 7.6 97 996.5 0.0 NW 0.7 0.0 0.0
05:53 8.0 7.6 97 996.4 0.0 NW 0.7 0.0 0.0
05:54 8.0 7.6 97 996.6 0.0 NW 0.7 0.0 0.0
05:55 8.0 7.6 97 996.6 0.0 NW 0.0 0.0 0.0
05:56 8.0 7.6 97 996.6 0.0 NW 0.0 0.0 0.0
05:57 8.0 7.6 97 996.6 0.0 NW 0.0 0.0 0.0
05:58 8.0 7.6 97 996.6 0.0 NW 0.0 0.0 0.0
05:59 7.9 7.5 97 996.5 0.0 NW 0.0 0.0 0.0
06:00 7.9 7.5 97 996.7 0.0 NW 0.0 0.0 0.0
06:01 7.9 7.5 97 996.5 0.0 NW 0.0 0.0 0.0
06:02 7.9 7.5 97 996.6 0.0 NW 0.0 0.0 0.0
06:03 7.9 7.5 97 996.6 0.0 NW 0.0 0.0 0.0
06:04 7.9 7.5 97 996.6 0.0 NW 0.0 0.0 0.0
06:05 7.9 7.5 97 996.7 0.0 NW 0.0 0.0 0.0
06:07 7.9 7.5 97 996.7 0.0 NW 0.0 0.0 0.0
06:08 7.9 7.5 97 996.6 0.0 NW 0.0 0.0 0.0
06:09 7.9 7.5 97 996.5 0.0 NW 0.0 0.0 0.0
06:10 7.9 7.6 98 996.6 0.0 NW 0.0 0.0 0.0
06:11 7.9 7.5 97 996.6 0.0 NW 0.0 0.0 0.0
06:12 8.0 7.6 97 996.7 0.0 NW 0.0 0.0 0.0
06:13 8.0 7.7 98 996.7 0.7 NW 0.7 0.0 0.0
06:14 8.0 7.7 98 996.7 0.7 NW 0.7 0.0 0.0
06:15 8.0 7.7 98 996.7 0.0 NW 0.7 0.0 0.0
06:16 8.1 7.8 98 996.7 0.0 NW 0.7 0.0 0.0
06:17 8.1 7.8 98 996.7 0.0 NW 0.7 0.0 0.0
06:18 8.2 7.9 98 996.7 0.0 NW 0.7 0.0 0.0
06:20 8.3 8.0 98 996.7 0.0 NW 0.7 0.0 0.0
06:21 8.3 8.0 98 996.7 0.0 NW 0.7 0.0 0.0
06:22 8.3 8.0 98 996.8 0.0 NW 0.7 0.0 0.0
06:23 8.3 8.0 98 996.8 0.0 NW 0.7 0.0 0.0
06:24 8.3 8.0 98 996.9 0.0 NW 0.7 0.0 0.0
06:25 8.3 8.0 98 996.9 0.0 NW 0.7 0.0 0.0
06:26 8.3 8.0 98 996.9 0.0 NW 0.7 0.0 0.0
06:27 8.3 8.0 98 997.0 0.0 NW 0.0 0.0 0.0
06:28 8.3 8.0 98 996.9 0.0 NW 0.0 0.0 0.0
06:29 8.3 8.0 98 996.8 0.0 NW 0.0 0.0 0.0
06:30 8.2 7.9 98 996.7 0.0 NW 0.0 0.0 0.0
06:31 8.2 7.9 98 996.8 0.7 SE 0.7 0.0 0.0
06:32 8.2 7.9 98 996.8 0.0 SE 0.7 0.0 0.0
06:33 8.2 7.9 98 996.8 0.0 SE 0.7 0.0 0.0
06:34 8.2 7.9 98 996.8 0.0 SE 0.7 0.0 0.0
06:35 8.2 7.9 98 996.8 0.0 SE 0.7 0.0 0.0
06:36 8.1 7.8 98 996.9 0.0 SE 0.7 0.0 0.0
06:37 8.1 7.8 98 996.8 0.0 SE 0.7 0.0 0.0
06:38 8.0 7.7 98 996.8 0.0 SE 0.7 0.0 0.0
06:39 8.1 7.7 97 996.9 0.0 SE 0.7 0.0 0.0
06:40 8.0 7.7 98 996.8 0.0 SE 0.7 0.0 0.0
06:41 8.1 7.8 98 996.9 0.0 SE 0.0 0.0 0.0
06:42 8.1 7.8 98 996.8 0.0 SE 0.0 0.0 0.0
06:43 8.1 7.8 98 996.8 0.0 SE 0.0 0.0 0.0
06:44 8.1 7.8 98 996.8 0.0 SE 0.0 0.0 0.0
06:45 8.1 7.8 98 996.9 0.0 SE 0.0 0.0 0.0
06:46 8.1 7.8 98 996.8 0.0 SE 0.0 0.0 0.0
06:47 8.2 7.9 98 996.8 0.0 SE 0.0 0.0 0.0
06:49 8.2 7.9 98 996.9 0.0 SE 0.7 0.0 0.0
06:50 8.3 8.0 98 996.9 0.0 SE 0.7 0.0 0.0
06:51 8.3 8.0 98 996.9 0.0 SE 0.7 0.0 0.0
06:52 8.3 8.0 98 996.8 0.0 SE 0.7 0.0 0.0
06:53 8.3 8.0 98 996.8 0.0 SE 0.7 0.0 0.0
06:54 8.3 8.0 98 996.8 0.0 SE 0.7 0.0 0.0
06:55 8.4 8.1 98 996.8 0.0 SE 0.7 0.0 0.0
06:56 8.4 8.1 98 996.8 0.0 SE 0.7 0.0 0.0
06:57 8.4 8.1 98 996.9 0.0 SE 0.7 0.0 0.0
06:58 8.4 8.1 98 996.9 0.0 SE 0.7 0.0 0.0
06:59 8.5 8.2 98 996.9 0.0 SE 0.7 0.0 0.0
07:00 8.5 8.2 98 996.8 0.7 SE 0.7 0.0 0.0
07:01 8.5 8.2 98 996.8 0.7 SE 0.7 0.0 0.0
07:03 8.4 8.1 98 997.0 0.7 SE 0.7 0.0 0.0
07:04 8.4 8.1 98 997.0 0.0 SE 0.7 0.0 0.0
07:05 8.4 8.1 98 996.9 0.0 SE 0.7 0.0 0.0
07:07 8.4 8.1 98 997.0 0.7 NW 0.7 0.0 0.0
07:08 8.5 8.2 98 996.9 0.7 NW 0.7 0.0 0.0
07:09 8.5 8.2 98 997.0 0.0 NW 0.7 0.0 0.0
07:10 8.5 8.2 98 996.9 1.6 NW 1.6 0.0 0.0
07:11 8.5 8.2 98 996.9 0.7 NW 1.6 0.0 0.0
07:12 8.5 8.2 98 997.0 1.6 NW 1.6 0.0 0.0
07:13 8.5 8.2 98 996.9 1.6 NW 1.6 0.0 0.0
07:14 8.6 8.3 98 996.9 1.6 N 1.6 0.0 0.0
07:15 8.6 8.3 98 997.0 1.6 NW 1.6 0.0 0.0
07:16 8.6 8.3 98 996.9 2.2 NW 2.2 0.0 0.0
07:17 8.7 8.4 98 997.0 0.0 NW 2.2 0.0 0.0
07:18 8.7 8.4 98 997.0 0.7 NW 2.2 0.0 0.0
07:19 8.7 8.4 98 997.1 0.7 NW 2.2 0.0 0.0
07:21 8.7 8.4 98 997.1 3.1 NW 3.1 0.0 0.0
07:22 8.7 8.6 99 997.0 3.1 NW 3.1 0.0 0.0
07:23 8.7 8.4 98 997.1 3.1 NW 3.1 0.0 0.0
07:24 8.7 8.6 99 997.1 2.2 NW 3.1 0.0 0.0
07:25 8.8 8.7 99 997.1 2.2 NW 3.1 0.0 0.0
07:26 8.8 8.7 99 997.0 3.1 NW 3.1 0.0 0.0
07:27 8.8 8.7 99 997.0 3.1 NW 3.1 0.0 0.0
07:28 8.9 8.8 99 997.1 3.1 NW 3.1 0.0 0.0
07:29 9.0 8.9 99 997.2 3.1 NW 3.1 0.0 0.0
07:30 9.0 8.9 99 997.1 2.2 NW 3.1 0.0 0.0
07:31 9.0 8.9 99 997.2 2.2 NW 3.1 0.0 0.0
07:32 9.1 9.0 99 997.1 2.2 NW 3.1 0.0 0.0
07:33 9.1 9.0 99 997.0 2.2 NW 3.1 0.0 0.0
07:35 9.3 9.2 99 997.2 1.6 NW 3.1 0.0 0.0
07:36 9.3 9.2 99 997.2 0.7 NW 3.1 0.0 0.0
07:37 9.3 9.2 99 997.2 1.6 NW 3.1 0.0 0.0
07:38 9.3 9.2 99 997.3 0.7 NW 3.1 0.0 0.0
07:39 9.3 9.2 99 997.2 1.6 NW 2.2 0.0 0.0
07:40 9.3 9.2 99 997.2 1.6 NW 2.2 0.0 0.0
07:41 9.3 9.2 99 997.1 1.6 NW 2.2 0.0 0.0
07:42 9.3 9.2 99 997.2 0.7 NW 2.2 0.0 0.0
07:43 9.4 9.3 99 997.3 0.7 NW 2.2 0.0 0.0
07:44 9.3 9.2 99 997.2 0.0 NW 2.2 0.0 0.0
07:45 9.3 9.2 99 997.2 0.0 NW 1.6 0.0 0.0
07:46 9.3 9.2 99 997.3 0.0 NW 1.6 0.8 0.1
07:47 9.3 9.2 99 997.2 0.0 NW 1.6 0.8 0.1
07:49 9.3 9.2 99 997.3 0.0 NW 1.6 0.8 0.1
07:50 9.2 9.1 99 997.3 0.0 NW 1.6 0.8 0.1
07:51 9.2 9.1 99 997.3 0.0 NW 0.7 0.0 0.1
07:52 9.2 9.1 99 997.3 0.0 NW 0.7 0.0 0.1
07:53 9.2 9.1 99 997.3 0.0 NW 0.7 0.0 0.1
07:54 9.1 9.0 99 997.3 0.0 NW 0.0 0.0 0.1
07:55 9.1 9.0 99 997.3 0.0 NW 0.0 0.0 0.1
07:56 9.1 9.0 99 997.3 0.0 NW 0.0 0.0 0.1
07:57 9.1 9.0 99 997.3 0.0 NW 0.0 0.0 0.1
07:58 9.1 9.0 99 997.3 0.0 NW 0.0 0.0 0.1
07:59 9.1 9.0 99 997.3 0.0 NW 0.0 0.0 0.1
08:00 9.1 9.0 99 997.5 0.0 NW 0.0 0.0 0.1
08:01 9.1 9.0 99 997.4 0.0 NW 0.0 0.0 0.1
08:03 9.1 9.0 99 997.4 0.0 NW 0.0 0.0 0.1
08:04 9.1 9.0 99 997.4 0.0 NW 0.0 0.0 0.1
08:05 9.1 9.0 99 997.5 0.0 NW 0.0 0.0 0.1
08:06 9.1 9.0 99 997.5 0.0 NW 0.0 0.0 0.1
08:07 9.0 8.9 99 997.4 0.0 NW 0.0 0.0 0.1
08:08 8.9 8.8 99 997.4 0.0 NW 0.0 0.0 0.1
08:09 8.9 8.8 99 997.5 0.0 NW 0.0 0.0 0.1
08:10 8.9 8.8 99 997.5 0.0 NW 0.0 0.0 0.1
08:11 8.9 8.8 99 997.5 0.0 NW 0.0 0.0 0.1
08:12 8.9 8.8 99 997.6 0.0 NW 0.0 0.0 0.1
08:13 8.9 8.8 99 997.5 0.7 NW 0.7 0.0 0.1
08:14 8.9 8.8 99 997.5 0.0 NW 0.7 0.0 0.1
08:15 8.8 8.7 99 997.4 0.0 NW 0.7 0.0 0.1
08:17 8.9 8.8 99 997.6 0.0 NW 0.7 0.0 0.1
08:18 8.8 8.7 99 997.7 0.0 NW 0.7 0.0 0.1
08:19 8.8 8.7 99 997.7 0.0 NW 0.7 0.0 0.1
08:20 8.8 8.7 99 997.8 2.2 NW 2.2 0.0 0.1
08:21 8.9 8.8 99 997.7 6.9 NW 6.9 1.5 0.2
08:22 8.9 8.8 99 997.8 6.9 SW 6.9 1.5 0.3
08:23 8.9 8.8 99 997.8 6.9 SW 6.9 2.3 0.3
08:24 9.1 9.0 99 997.8 6.0 WSW 6.9 2.3 0.3
08:25 9.2 9.1 99 997.7 8.3 NW 8.3 2.3 0.3
08:26 9.3 9.2 99 997.7 12.1 NW 12.1 0.8 0.3
08:27 9.4 9.3 99 997.8 9.2 NW 12.1 0.8 0.3
08:28 9.7 9.6 99 997.9 6.0 NW 12.1 0.8 0.3
08:29 9.8 9.7 99 997.8 5.4 NW 12.1 0.8 0.3
08:30 9.9 9.8 99 997.8 5.4 NW 12.1 0.8 0.3
08:32 10.1 10.0 99 997.8 4.5 WSW 12.1 0.8 0.3
08:33 10.2 10.1 99 997.7 4.5 WSW 12.1 0.0 0.3
08:34 10.3 10.2 99 997.8 6.0 NW 12.1 0.0 0.3
08:35 10.4 10.3 99 997.7 6.9 NW 12.1 0.0 0.3
08:36 10.4 10.3 99 997.8 5.4 WSW 9.2 0.0 0.3
08:37 10.5 10.4 99 997.9 6.0 NW 6.9 0.0 0.3
08:38 10.5 10.4 99 997.9 6.0 NW 6.9 0.0 0.3
08:39 10.5 10.4 99 998.0 4.5 WSW 6.9 0.0 0.3
08:40 10.6 10.5 99 997.8 5.4 WSW 6.9 0.0 0.3
08:41 10.6 10.5 99 998.0 4.5 NW 6.9 0.0 0.3
08:42 10.7 10.6 99 998.0 5.4 NW 6.9 0.0 0.3
08:43 10.7 10.6 99 997.9 3.8 WSW 6.9 0.0 0.3
08:44 10.8 10.7 99 998.0 3.8 WSW 6.9 0.0 0.3
08:46 10.8 10.7 99 998.0 4.5 NW 6.0 0.0 0.3
08:47 10.8 10.7 99 997.9 3.8 WSW 6.0 0.0 0.3
08:48 10.8 10.7 99 998.0 4.5 NW 5.4 0.0 0.3
08:49 10.9 10.8 99 998.1 2.2 NW 5.4 0.0 0.3
08:50 10.9 10.8 99 998.0 3.1 NW 5.4 0.0 0.3
08:51 10.9 10.8 99 998.1 2.2 WSW 5.4 0.0 0.3
08:52 10.9 10.8 99 998.1 3.8 NW 5.4 0.0 0.3
08:53 10.9 10.8 99 998.0 4.5 WSW 5.4 0.0 0.3
08:54 11.0 10.9 99 998.1 5.4 NW 5.4 0.0 0.3
08:55 11.0 10.9 99 998.1 3.8 NW 5.4 0.0 0.3
08:56 11.0 10.9 99 998.2 3.8 NW 5.4 0.0 0.3
08:57 11.1 11.0 99 998.2 5.4 NW 5.4 0.0 0.3
08:58 11.1 11.0 99 998.1 5.4 WSW 5.4 0.0 0.3
09:00 11.2 11.1 99 998.2 4.5 NW 5.4 0.0 0.3
09:01 11.2 11.1 99 998.3 4.5 NW 5.4 0.0 0.3
09:02 11.2 11.1 99 998.1 4.5 NW 5.4 0.0 0.3
09:03 11.2 11.1 99 998.3 4.5 NW 5.4 0.0 0.3
09:04 11.2 11.1 99 998.3 4.5 NW 5.4 0.0 0.3
09:05 11.4 11.3 99 998.4 15.9 NW 15.9 0.0 0.3
09:07 11.4 11.3 99 998.2 13.6 WNW 15.9 0.0 0.3
09:08 11.4 11.3 99 998.2 9.8 NW 15.9 0.0 0.3
09:09 11.5 11.4 99 998.4 7.6 WSW 15.9 0.0 0.3
09:10 11.4 11.3 99 998.4 7.6 WSW 15.9 0.0 0.3
09:11 11.4 11.3 99 998.3 10.7 WSW 15.9 0.0 0.3
09:12 11.4 11.3 99 998.2 8.3 NW 15.9 0.0 0.3
09:13 11.5 11.4 99 998.3 6.9 WSW 15.9 0.0 0.3
09:14 11.5 11.4 99 998.4 8.3 NW 15.9 0.0 0.3
09:15 11.4 11.3 99 998.3 9.2 WSW 15.9 0.0 0.3
09:16 11.5 11.4 99 998.4 11.4 NW 15.9 0.0 0.3
09:17 11.4 11.3 99 998.2 8.3 WSW 13.6 0.0 0.3
09:18 11.4 11.3 99 998.3 9.2 NW 11.4 0.0 0.3
09:19 11.4 11.3 99 998.3 7.6 NW 11.4 0.0 0.3
09:20 11.4 11.3 99 998.3 5.4 NW 11.4 0.0 0.3
09:21 11.4 11.3 99 998.2 7.6 NW 11.4 0.0 0.3
09:23 11.4 11.3 99 998.5 13.6 NW 13.6 0.8 0.4
09:24 11.5 11.4 99 998.5 6.0 WSW 13.6 0.8 0.4
09:25 11.5 11.4 99 998.4 8.3 WSW 13.6 0.8 0.4
09:26 11.5 11.4 99 998.5 7.6 NW 13.6 0.8 0.4
09:27 11.5 11.4 99 998.6 8.3 NW 13.6 0.0 0.4
09:28 11.5 11.4 99 998.5 6.0 WSW 13.6 0.0 0.4
09:29 11.5 11.4 99 998.6 7.6 WSW 13.6 0.0 0.4
09:30 11.5 11.4 99 998.5 5.4 NW 13.6 0.0 0.4
09:31 11.5 11.4 99 998.6 6.9 WSW 13.6 0.0 0.4
09:32 11.6 11.5 99 998.6 9.8 NW 13.6 0.0 0.4
09:33 11.6 11.5 99 998.6 9.8 NW 13.6 0.0 0.4
09:34 11.6 11.5 99 998.6 9.8 NW 9.8 0.0 0.4
09:35 11.6 11.5 99 998.6 9.8 WSW 9.8 0.0 0.4
09:36 11.6 11.5 99 998.7 6.9 NW 9.8 0.0 0.4
09:38 11.6 11.5 99 998.7 10.7 NW 10.7 0.0 0.4
09:39 11.6 11.5 99 998.7 7.6 NW 10.7 0.0 0.4
09:40 11.6 11.5 99 998.7 9.2 NW 10.7 0.0 0.4
09:41 11.6 11.5 99 998.7 11.4 NW 11.4 0.0 0.4
09:42 11.6 11.5 99 998.7 9.2 WSW 11.4 0.0 0.4
09:43 11.6 11.5 99 998.7 9.2 WSW 11.4 0.0 0.4
09:44 11.7 11.6 99 998.8 9.2 NW 11.4 0.0 0.4
09:45 11.7 11.6 99 998.8 9.8 WSW 11.4 0.0 0.4
09:46 11.7 11.6 99 998.7 8.3 NW 11.4 0.0 0.4
09:47 11.8 11.7 99 998.8 8.3 WSW 11.4 0.0 0.4
09:48 11.8 11.7 99 998.8 11.4 WSW 11.4 0.0 0.4
09:49 11.8 11.7 99 998.7 12.1 NW 12.1 0.0 0.4
09:50 11.8 11.7 99 998.8 11.4 NW 12.1 0.0 0.4
09:52 11.9 11.8 99 998.7 8.3 NW 12.1 0.0 0.4
09:53 11.9 11.8 99 998.7 10.7 WSW 12.1 0.0 0.4
09:54 11.9 11.8 99 998.7 10.7 WSW 12.1 0.0 0.4
09:55 11.9 11.8 99 998.7 15.2 WSW 15.2 0.0 0.4
09:56 12.0 11.9 99 998.8 11.4 NW 15.2 0.0 0.4
09:57 12.0 11.9 99 998.7 15.2 NW 15.2 0.0 0.4
09:58 12.0 11.9 99 998.8 15.2 NW 15.2 0.0 0.4
09:59 12.0 11.9 99 998.7 12.1 N 15.2 0.0 0.4
10:00 12.0 11.9 99 998.7 9.8 NW 15.2 0.0 0.4
10:01 12.0 11.9 99 998.7 9.8 NW 15.2 0.0 0.4
10:02 12.0 11.9 99 998.8 9.8 NW 15.2 0.0 0.4
10:03 12.0 11.9 99 998.9 9.8 NW 15.2 0.0 0.4
10:04 12.0 11.9 99 998.8 9.8 NW 15.2 0.0 0.4
10:06 12.0 11.9 99 998.9 7.6 NW 15.2 0.0 0.4
10:07 12.0 11.9 99 998.8 12.1 NW 15.2 0.0 0.4
10:08 12.0 11.9 99 998.7 9.2 NW 13.6 0.0 0.4
10:09 12.0 11.9 99 998.9 11.4 WSW 13.6 0.0 0.4
10:10 12.0 11.9 99 998.8 9.8 NW 12.1 0.0 0.4
10:11 12.0 11.9 99 998.8 9.8 NW 12.1 0.0 0.4
10:12 12.0 11.9 99 998.8 8.3 WSW 12.1 0.0 0.4
10:13 12.0 11.9 99 998.9 12.1 WSW 12.1 0.0 0.4
10:14 12.1 12.0 99 999.0 8.3 WSW 12.1 0.0 0.4
10:15 12.1 12.0 99 999.0 9.8 WSW 12.1 0.0 0.4
10:16 12.1 12.0 99 998.9 12.1 S 12.1 0.0 0.4
10:17 12.1 12.0 99 999.0 13.6 WSW 14.5 0.0 0.4
10:18 12.1 12.0 99 998.9 17.4 WSW 17.4 0.0 0.4
10:20 12.1 12.0 99 998.9 10.7 WSW 17.4 0.0 0.4
10:21 12.1 12.0 99 999.0 8.3 NW 17.4 0.0 0.4
10:22 12.1 12.0 99 998.9 10.7 NW 17.4 0.0 0.4
10:23 12.1 12.0 99 999.0 10.7 NW 17.4 0.0 0.4
10:24 12.1 12.0 99 999.0 9.8 WNW 17.4 0.0 0.4
10:25 12.1 12.0 99 999.0 13.6 WNW 17.4 0.0 0.4
10:26 12.1 12.0 99 999.0 9.2 N 17.4 0.0 0.4
10:27 12.1 12.0 99 999.0 12.1 NW 17.4 0.0 0.4
10:28 12.1 12.0 99 999.0 13.0 NW 15.2 0.0 0.4
10:29 12.1 12.0 99 999.0 14.5 NW 15.2 0.0 0.4
10:30 12.1 12.0 99 999.1 15.2 NW 15.2 0.0 0.4
10:31 12.1 12.0 99 999.2 13.0 WSW 15.2 0.0 0.4
10:32 12.1 12.0 99 999.1 11.4 SSW 15.2 0.0 0.4
10:34 12.1 12.0 99 999.2 10.7 NW 15.2 0.0 0.4
10:35 12.1 12.0 99 999.2 12.1 N 15.2 0.0 0.4
10:36 12.1 12.0 99 999.2 10.7 WSW 15.2 0.0 0.4
10:37 12.2 12.1 99 999.2 12.1 NW 15.2 0.0 0.4
10:38 12.1 12.0 99 999.1 11.4 NW 15.2 0.0 0.4
10:39 12.1 12.0 99 999.1 11.4 NW 15.2 0.0 0.4
10:40 12.2 12.1 99 999.1 9.8 NW 13.0 0.0 0.4
10:41 12.2 12.1 99 999.2 11.4 NW 13.0 0.0 0.4
10:42 12.1 12.0 99 999.1 8.3 NW 13.0 0.0 0.4
10:43 12.2 12.1 99 999.0 12.1 WNW 13.0 0.0 0.4
10:44 12.4 12.3 99 999.2 11.4 WNW 13.0 0.0 0.4
10:45 12.2 12.1 99 999.2 9.2 WSW 13.0 0.0 0.4
10:46 12.2 12.1 99 999.2 11.4 NW 13.0 0.0 0.4
10:48 12.2 12.1 99 999.3 11.4 WNW 12.1 0.0 0.4
10:49 12.2 12.1 99 999.2 10.7 WSW 12.1 0.0 0.4
10:50 12.2 12.1 99 999.2 9.8 WSW 12.1 0.0 0.4
10:51 12.2 12.1 99 999.1 11.4 NW 12.1 0.0 0.4
10:52 12.2 12.1 99 999.2 12.1 NW 12.1 0.0 0.4
10:53 12.3 12.2 99 999.2 10.7 NW 12.1 0.0 0.4
10:54 12.3 12.2 99 999.2 9.8 NW 12.1 0.0 0.4
10:55 12.3 12.2 99 999.1 8.3 NW 12.1 0.0 0.4
10:56 12.4 12.1 98 999.2 10.7 NW 12.1 0.0 0.4
10:57 12.4 12.1 98 999.1 13.0 NW 13.0 0.0 0.4
10:58 12.5 12.2 98 999.1 9.8 WSW 13.0 0.0 0.4
10:59 12.5 12.2 98 999.2 12.1 WSW 13.0 0.0 0.4
11:00 12.6 12.3 98 999.0 13.6 WSW 13.6 0.0 0.4
11:01 12.7 12.2 97 999.2 11.4 NW 13.6 0.0 0.4
11:02 12.7 12.2 97 999.0 11.4 NW 13.6 0.0 0.4
11:03 12.8 12.3 97 999.2 13.6 WSW 13.6 0.0 0.4
11:05 12.8 12.2 96 998.9 11.4 WSW 13.6 0.0 0.4
11:06 12.8 12.2 96 999.2 10.7 WSW 13.6 0.0 0.4
11:08 12.8 12.0 95 999.1 10.7 NW 13.6 0.0 0.4
11:09 12.8 11.9 94 999.0 13.0 N 13.6 0.0 0.4
11:10 12.8 11.9 94 999.0 12.1 NW 13.6 0.0 0.4
11:11 12.8 11.7 93 999.1 14.5 N 14.5 0.0 0.4
11:12 12.7 11.6 93 999.1 13.0 N 14.5 0.0 0.4
11:13 12.7 11.4 92 999.0 9.2 WSW 14.5 0.0 0.4
11:14 12.7 11.4 92 999.0 9.2 WSW 14.5 0.0 0.4
11:15 12.7 11.4 92 998.9 9.2 SW 14.5 0.0 0.4
11:16 12.7 11.4 92 999.1 6.9 NW 14.5 0.0 0.4
11:17 12.7 11.3 91 999.1 13.0 WSW 14.5 0.0 0.4
11:18 12.7 11.3 91 999.1 12.1 WSW 14.5 0.0 0.4
11:19 12.7 11.3 91 999.0 10.7 WSW 14.5 0.0 0.4
11:20 12.7 11.3 91 999.0 12.1 WSW 14.5 0.0 0.4
11:22 12.8 11.2 90 999.0 7.6 WSW 13.6 0.0 0.4
11:23 12.9 11.3 90 999.0 8.3 WSW 13.6 0.0 0.4
11:24 13.0 11.4 90 999.0 7.6 WSW 13.6 0.0 0.4
11:25 13.1 11.5 90 998.9 12.1 WSW 13.6 0.0 0.4
11:26 13.1 11.5 90 998.9 15.9 WSW 15.9 0.0 0.4
11:27 13.2 11.6 90 998.9 11.4 NNW 15.9 0.0 0.4
11:28 13.2 11.6 90 998.9 13.0 WSW 15.9 0.0 0.4
11:29 13.3 11.5 89 998.7 13.6 WSW 15.9 0.0 0.4
11:30 13.3 11.5 89 999.0 10.7 NW 15.9 0.0 0.4
11:31 13.3 11.5 89 998.9 10.7 WSW 15.9 0.0 0.4
11:32 13.3 11.5 89 998.9 11.4 WSW 15.9 0.0 0.4
11:33 13.4 11.5 88 998.8 12.1 WSW 15.9 0.0 0.4
11:34 13.4 11.5 88 998.8 10.7 N 15.9 0.0 0.4
11:36 13.5 11.6 88 999.0 10.7 WSW 15.9 0.0 0.4
11:37 13.6 11.5 87 998.8 7.6 W 13.6 0.0 0.4
11:38 13.6 11.5 87 998.8 9.2 WSW 13.6 0.0 0.4
11:39 13.7 11.6 87 998.9 9.2 NNW 12.1 0.0 0.4
11:40 13.7 11.6 87 998.9 12.1 WSW 12.1 0.0 0.4
11:41 13.8 11.7 87 998.9 11.4 SSW 12.1 0.0 0.4
11:42 13.8 11.7 87 998.9 11.4 SSW 12.1 0.0 0.4
11:43 13.8 11.7 87 999.0 14.5 WSW 14.5 0.0 0.4
11:44 13.9 11.6 86 999.0 10.7 W 14.5 0.0 0.4
11:45 14.0 11.7 86 999.0 9.8 NW 14.5 0.0 0.4
11:46 13.9 11.4 85 999.0 8.3 WSW 14.5 0.0 0.4
11:47 14.0 11.5 85 999.0 9.2 WSW 14.5 0.0 0.4
11:48 14.0 11.5 85 999.0 9.8 WSW 14.5 0.0 0.4
11:50 14.0 11.5 85 999.2 8.3 W 14.5 0.0 0.4
11:51 14.1 11.6 85 999.0 11.4 W 14.5 0.0 0.4
11:52 14.1 11.4 84 999.1 9.8 NW 14.5 0.0 0.4
11:53 14.2 11.5 84 999.0 7.6 W 12.1 0.0 0.4
11:54 14.2 11.5 84 999.0 9.8 W 12.1 0.0 0.4
11:55 14.2 11.5 84 999.1 11.4 WSW 12.1 0.0 0.4
11:56 14.2 11.5 84 999.1 11.4 WSW 12.1 0.0 0.4
11:57 14.3 11.6 84 998.9 8.3 W 12.1 0.0 0.4
11:58 14.4 11.6 83 999.0 9.2 WSW 12.1 0.0 0.4
11:59 14.4 11.6 83 999.0 6.9 WSW 12.1 0.0 0.4
12:00 14.5 11.7 83 999.1 7.6 NW 11.4 0.0 0.4
12:01 14.5 11.7 83 999.2 7.6 NW 11.4 0.0 0.4
12:02 14.5 11.7 83 999.1 7.6 NW 11.4 0.0 0.4
12:04 14.5 11.7 83 999.1 7.6 NW 11.4 0.0 0.4
12:05 14.6 11.4 81 999.0 13.0 WSW 13.0 0.0 0.4
12:06 14.6 11.2 80 999.1 13.0 WSW 13.0 0.0 0.4
12:07 14.6 11.0 79 999.1 13.0 W 13.0 0.0 0.4
12:08 14.6 11.0 79 999.0 11.4 WSW 13.0 0.0 0.4
12:09 14.6 10.8 78 999.0 8.3 S 13.0 0.0 0.4
12:10 14.6 10.8 78 999.0 8.3 S 13.0 0.0 0.4
12:11 14.6 10.8 78 999.0 9.8 S 13.0 0.0 0.4
12:12 14.6 10.6 77 999.0 8.3 WSW 13.0 0.0 0.4
12:13 14.6 10.6 77 999.0 6.0 WSW 13.0 0.0 0.4
12:14 14.7 10.7 77 999.0 8.3 WSW 13.0 0.0 0.4
12:15 14.7 10.7 77 999.1 9.8 WSW 13.0 0.0 0.4
12:16 14.7 10.7 77 999.1 11.4 WSW 13.0 0.0 0.4
12:18 14.8 10.6 76 999.1 12.1 W 12.1 0.0 0.4
12:19 14.8 10.4 75 999.2 9.8 WSW 12.1 0.0 0.4
12:20 14.8 10.4 75 999.2 10.7 WSW 12.1 0.0 0.4
12:21 14.8 10.4 75 999.1 9.8 W 12.1 0.0 0.4
12:22 14.8 10.2 74 999.1 10.7 NW 12.1 0.0 0.4
12:23 14.8 10.2 74 998.9 9.2 S 12.1 0.0 0.4
12:24 14.8 10.2 74 999.2 9.2 WSW 12.1 0.0 0.4
12:25 14.9 10.3 74 999.2 11.4 WSW 12.1 0.0 0.4
12:26 14.9 10.3 74 999.2 15.2 WSW 15.2 0.0 0.4
12:27 14.9 10.3 74 999.2 13.0 S 15.2 0.0 0.4
12:28 15.0 10.2 73 999.1 10.7 WSW 15.2 0.0 0.4
12:29 15.0 10.2 73 999.1 10.7 WSW 15.2 0.0 0.4
12:30 15.0 10.2 73 999.1 8.3 WSW 15.2 0.0 0.4
12:32 15.0 10.2 73 999.0 8.3 WSW 15.2 0.0 0.4
12:33 15.1 10.3 73 999.1 6.9 WSW 15.2 0.0 0.4
12:34 15.2 10.4 73 999.0 9.2 WSW 15.2 0.0 0.4
12:35 15.2 10.4 73 999.0 9.2 S 15.2 0.0 0.4
12:36 15.2 10.2 72 999.1 11.4 S 13.0 0.0 0.4
12:37 15.3 10.3 72 999.1 9.8 WSW 13.6 0.0 0.4
12:38 15.3 10.3 72 999.1 9.8 WSW 13.6 0.0 0.4
12:39 15.3 10.3 72 999.2 9.2 W 13.6 0.0 0.4
12:40 15.3 10.1 71 999.1 11.4 W 13.6 0.0 0.4
12:41 15.4 10.2 71 999.0 9.2 WSW 13.6 0.0 0.4
12:42 15.4 10.2 71 999.2 9.2 WSW 13.6 0.0 0.4
12:43 15.4 10.0 70 999.1 13.6 WSW 13.6 0.0 0.4
12:44 15.4 10.0 70 999.0 13.0 WSW 13.6 0.0 0.4
12:46 15.4 9.7 69 999.1 15.2 NW 15.2 0.0 0.4
12:47 15.4 9.5 68 999.1 13.0 NW 15.2 0.0 0.4
12:48 15.4 9.5 68 999.1 13.6 WSW 15.2 0.0 0.4
12:49 15.4 9.5 68 999.0 9.8 W 15.2 0.0 0.4
12:50 15.4 9.5 68 999.2 10.7 W 15.2 0.0 0.4
12:51 15.4 9.5 68 999.2 9.8 W 15.2 0.0 0.4
12:52 15.4 9.5 68 999.1 9.2 WSW 15.2 0.0 0.4
12:53 15.5 9.6 68 999.2 6.0 W 15.2 0.0 0.4
12:54 15.5 9.6 68 999.0 8.3 W 15.2 0.0 0.4
12:55 15.5 9.6 68 999.2 8.3 W 15.2 0.0 0.4
12:56 15.6 9.7 68 999.0 13.0 WSW 15.2 0.0 0.4
12:57 15.6 9.5 67 999.4 12.1 SE 13.6 0.0 0.4
12:58 15.6 9.5 67 999.2 11.4 S 13.6 0.0 0.4
13:00 15.7 9.4 66 999.3 11.4 W 14.5 0.0 0.4
13:01 15.6 9.3 66 999.2 7.6 WSW 14.5 0.0 0.4
13:02 15.6 9.3 66 999.2 10.7 WSW 14.5 0.0 0.4
13:03 15.6 9.3 66 999.2 14.5 WSW 14.5 0.0 0.4
13:04 15.5 9.0 65 999.1 13.6 S 14.5 0.0 0.4
13:05 15.4 8.6 64 999.1 10.7 WSW 14.5 0.0 0.4
13:06 15.4 8.9 65 999.1 12.1 WSW 14.5 0.0 0.4
13:08 15.4 8.9 65 999.2 13.0 S 14.5 0.0 0.4
13:09 15.4 8.6 64 999.0 15.9 WSW 15.9 0.0 0.4
13:10 15.4 8.6 64 999.2 12.1 WSW 15.9 0.0 0.4
13:11 15.3 8.5 64 999.1 9.8 S 15.9 0.0 0.4
13:12 15.2 8.4 64 999.2 11.4 WSW 15.9 0.0 0.4
13:13 15.1 8.3 64 999.1 12.1 W 15.9 0.0 0.4
13:14 15.1 8.3 64 999.1 12.1 W 15.9 0.0 0.4
13:15 15.1 8.3 64 999.2 14.5 W 15.9 0.0 0.4
13:16 15.1 8.3 64 999.1 9.8 WSW 15.9 0.0 0.4
13:17 15.1 8.6 65 999.1 13.0 WSW 15.9 0.0 0.4
13:18 15.1 8.6 65 999.2 14.5 WSW 15.9 0.0 0.4
13:19 15.1 8.6 65 999.0 13.0 S 15.9 0.0 0.4
13:20 15.2 8.7 65 999.1 13.6 N 15.9 0.0 0.4
13:22 15.4 8.9 65 999.2 15.9 SE 15.9 0.0 0.4
13:23 15.4 8.9 65 999.2 12.1 SSW 15.9 0.0 0.4
13:24 15.4 8.9 65 999.3 11.4 SSW 15.9 0.0 0.4
13:25 15.5 9.0 65 999.3 16.8 S 16.8 0.0 0.4
13:26 15.5 8.7 64 999.2 15.9 N 16.8 0.0 0.4
13:27 15.5 8.7 64 999.2 14.5 S 16.8 0.0 0.4
13:28 15.4 8.6 64 999.2 15.2 S 16.8 0.0 0.4
13:29 15.5 8.5 63 999.2 17.4 S 17.4 0.0 0.4
13:30 15.4 8.4 63 999.3 19.0 N 19.0 0.0 0.4
13:31 15.4 8.4 63 999.2 13.6 N 19.0 0.0 0.4
13:32 15.4 8.4 63 999.2 17.4 N 19.0 0.0 0.4
13:33 15.4 8.4 63 999.2 13.0 N 19.0 0.0 0.4
13:34 15.3 8.3 63 999.2 15.2 N 19.0 0.0 0.4
13:36 15.2 8.2 63 999.2 13.0 N 19.0 0.0 0.4
13:37 15.2 8.2 63 999.3 14.5 N 19.0 0.0 0.4
13:38 15.1 8.1 63 999.2 13.6 S 19.0 0.0 0.4
13:39 15.1 8.1 63 999.2 12.1 SSE 19.0 0.0 0.4
13:40 15.1 8.1 63 999.5 15.9 SSE 17.4 0.0 0.4
13:41 15.1 8.3 64 999.1 11.4 N 17.4 0.0 0.4
13:42 15.1 8.3 64 999.1 11.4 N 17.4 0.0 0.4
13:43 15.1 8.3 64 999.2 17.4 N 17.4 0.0 0.4
13:44 15.0 8.0 63 999.3 12.1 S 17.4 0.0 0.4
13:45 15.0 8.0 63 999.3 15.9 S 17.4 0.0 0.4
13:46 14.9 7.9 63 999.2 17.4 S 17.4 0.0 0.4
13:47 14.9 7.9 63 999.2 16.8 S 17.4 0.0 0.4
13:48 14.8 8.1 64 999.3 9.8 S 17.4 0.0 0.4
13:50 14.9 8.4 65 999.3 18.3 S 18.3 0.0 0.4
13:51 15.0 8.5 65 999.2 14.5 S 18.3 0.0 0.4
13:52 15.0 8.5 65 999.3 19.0 SW 19.0 0.0 0.4
13:53 15.1 8.6 65 999.2 15.9 S 19.0 0.0 0.4
13:54 15.1 8.6 65 999.4 15.9 N 19.0 0.0 0.4
13:55 15.1 8.3 64 999.3 15.2 S 19.0 0.0 0.4
13:56 15.1 8.3 64 999.3 15.2 S 19.0 0.0 0.4
13:57 15.0 8.3 64 999.3 13.0 SW 19.0 0.0 0.4
13:58 14.9 8.2 64 999.2 17.4 SW 19.0 0.0 0.4
13:59 14.9 8.2 64 999.2 16.8 SW 19.0 0.0 0.4
14:00 14.9 8.4 65 999.1 11.4 SW 19.0 0.0 0.4
14:01 14.9 8.4 65 999.2 11.4 SW 19.0 0.0 0.4
14:02 15.0 8.5 65 999.1 18.3 S 18.3 0.0 0.4
14:04 15.1 8.6 65 999.3 15.2 SW 18.3 0.0 0.4
14:05 15.1 8.6 65 999.3 19.0 S 19.0 0.0 0.4
14:06 15.0 8.5 65 999.3 15.2 S 19.0 0.0 0.4
14:07 15.0 8.5 65 999.2 13.0 SW 19.0 0.0 0.4
14:08 15.0 8.5 65 999.3 14.5 SW 19.0 0.0 0.4
14:09 15.1 8.6 65 999.2 14.5 S 19.0 0.0 0.4
14:10 15.1 8.6 65 999.2 14.5 S 19.0 0.0 0.4
14:11 15.1 8.6 65 999.2 15.2 WSW 19.0 0.0 0.4
14:12 15.1 8.6 65 999.1 10.7 NW 19.0 0.0 0.4
14:13 15.2 8.7 65 999.2 9.2 SW 19.0 0.0 0.4
14:14 15.2 8.9 66 999.1 11.4 SW 19.0 0.0 0.4
14:15 15.3 9.0 66 999.2 13.6 S 19.0 0.0 0.4
14:16 15.3 9.0 66 999.2 16.8 SW 19.0 0.0 0.4
14:17 15.4 9.1 66 999.2 18.3 S 18.3 0.0 0.4
14:18 15.5 9.0 65 999.3 14.5 NW 18.3 0.0 0.4
14:19 15.5 8.7 64 999.2 15.2 S 18.3 0.0 0.4
14:20 15.5 8.7 64 999.3 11.4 S 18.3 0.0 0.4
14:21 15.5 8.7 64 999.3 18.3 SW 18.3 0.0 0.4
14:22 15.4 8.6 64 999.3 14.5 S 18.3 0.0 0.4
14:23 15.4 8.6 64 999.2 14.5 SW 18.3 0.0 0.4
14:24 15.4 8.6 64 999.3 15.9 SW 18.3 0.0 0.4
14:25 15.4 8.6 64 999.2 13.0 SW 18.3 0.0 0.4
14:26 15.3 8.5 64 999.3 10.7 SE 18.3 0.0 0.4
14:27 15.3 8.5 64 999.1 14.5 S 18.3 0.0 0.4
14:28 15.3 8.5 64 999.2 15.2 S 18.3 0.0 0.4
14:29 15.3 8.5 64 999.2 14.5 S 18.3 0.0 0.4
14:30 15.3 8.5 64 999.3 13.0 SE 18.3 0.0 0.4
14:31 15.3 8.5 64 999.2 16.8 SW 18.3 0.0 0.4
14:32 15.2 8.4 64 999.2 13.0 SE 16.8 0.0 0.4
14:33 15.3 8.5 64 999.3 15.9 SW 16.8 0.0 0.4
14:34 15.2 8.4 64 999.2 12.1 SW 16.8 0.0 0.4
14:35 15.2 8.4 64 999.2 9.8 S 16.8 0.0 0.4
14:36 15.2 8.4 64 999.1 10.7 SW 16.8 0.0 0.4
14:37 15.2 8.4 64 999.1 17.4 SW 17.4 0.0 0.4
14:38 15.2 8.4 64 999.1 17.4 SW 17.4 0.0 0.4
14:39 15.1 8.3 64 999.3 15.9 SW 17.4 0.0 0.4
14:40 15.0 8.3 64 999.2 12.1 S 17.4 0.0 0.4
14:41 14.9 8.2 64 999.3 13.0 S 17.4 0.0 0.4
14:42 14.9 8.2 64 999.3 13.0 S 17.4 0.0 0.4
14:43 14.8 8.1 64 999.1 11.4 S 17.4 0.0 0.4
14:44 14.7 8.2 65 999.3 13.6 S 17.4 0.0 0.4
14:45 14.6 8.1 65 999.4 14.5 S 17.4 0.0 0.4
14:47 14.4 7.9 65 999.1 9.8 S 18.3 0.0 0.4
14:48 14.3 8.0 66 999.3 9.8 SW 18.3 0.0 0.4
14:49 14.3 8.0 66 999.2 11.4 S 18.3 0.0 0.4
14:50 14.2 7.9 66 999.0 15.2 S 18.3 0.0 0.4
14:51 14.2 7.9 66 999.4 15.2 S 18.3 0.0 0.4
14:52 14.1 8.1 67 999.3 11.4 S 18.3 0.0 0.4
14:53 14.1 8.1 67 999.1 13.6 S 18.3 0.0 0.4
14:54 14.0 8.0 67 999.1 14.5 S 18.3 0.0 0.4
14:55 14.0 8.0 67 999.2 11.4 S 18.3 0.0 0.4
14:56 13.9 7.9 67 999.2 13.0 S 18.3 0.0 0.4
14:57 13.8 7.8 67 999.1 12.1 SW 15.2 0.0 0.4
14:58 13.8 7.8 67 999.2 11.4 S 15.2 0.0 0.4
14:59 13.7 7.9 68 999.3 11.4 SSW 15.2 0.0 0.4
15:01 13.5 7.7 68 999.1 9.8 S 15.2 0.0 0.4
15:02 13.6 7.8 68 999.0 9.2 W 15.2 0.0 0.4
15:03 13.6 8.0 69 999.1 13.6 SSW 15.2 0.0 0.4
15:04 13.5 7.9 69 999.2 10.7 S 15.2 0.0 0.4
15:05 13.5 7.9 69 999.0 12.1 S 15.2 0.0 0.4
15:06 13.6 8.0 69 999.0 14.5 S 15.2 0.0 0.4
15:07 13.6 8.2 70 999.0 9.8 SW 15.2 0.0 0.4
15:08 13.5 8.1 70 999.0 7.6 S 15.2 0.0 0.4
15:09 13.6 8.2 70 999.0 13.6 S 15.2 0.0 0.4
15:10 13.6 8.2 70 999.0 9.8 S 14.5 0.0 0.4
15:11 13.6 8.2 70 999.0 9.8 S 14.5 0.0 0.4
15:12 13.6 8.4 71 999.0 9.8 WSW 14.5 0.0 0.4
15:13 13.7 8.5 71 999.0 9.8 SW 14.5 0.0 0.4
15:14 13.7 8.5 71 998.9 13.0 S 14.5 0.0 0.4
15:15 13.8 8.6 71 998.9 13.6 S 14.5 0.0 0.4
15:16 13.8 8.6 71 999.0 15.2 S 15.2 0.0 0.4
15:17 13.8 8.6 71 998.9 10.7 S 15.2 0.0 0.4
15:18 13.8 8.6 71 999.1 12.1 S 15.2 0.0 0.4
15:19 13.9 8.7 71 998.9 14.5 SW 15.2 0.0 0.4
15:20 13.9 8.7 71 999.0 10.7 SSE 15.2 0.0 0.4
15:21 14.0 8.8 71 998.8 13.6 N 15.2 0.0 0.4
15:22 14.0 8.8 71 998.9 9.8 SW 15.2 0.0 0.4
15:23 14.0 9.0 72 998.9 10.7 S 15.2 0.0 0.4
15:24 14.1 9.1 72 999.0 10.7 S 15.2 0.0 0.4
15:25 14.1 9.1 72 998.9 10.7 SW 15.2 0.0 0.4
15:26 14.1 9.1 72 998.8 10.7 S 14.5 0.0 0.4
15:27 14.1 9.1 72 998.9 11.4 SW 14.5 0.0 0.4
15:28 14.0 9.0 72 998.9 13.6 S 15.9 0.0 0.4
15:29 14.0 9.0 72 998.9 14.5 SW 15.9 0.0 0.4
15:30 14.0 9.0 72 998.9 12.1 SE 15.9 0.0 0.4
15:31 14.0 9.0 72 998.8 11.4 WSW 15.9 0.0 0.4
15:32 13.9 8.9 72 999.0 10.7 SW 15.9 0.0 0.4
15:34 13.9 8.9 72 998.8 15.9 S 16.8 0.0 0.4
15:35 13.8 8.8 72 999.0 16.8 S 16.8 0.0 0.4
15:36 13.8 8.8 72 998.8 13.0 SE 16.8 0.0 0.4
15:37 13.8 8.8 72 998.9 14.5 S 16.8 0.0 0.4
15:38 13.7 8.7 72 998.8 10.7 S 16.8 0.0 0.4
15:39 13.7 8.7 72 998.8 10.7 S 16.8 0.0 0.4
15:40 13.7 8.7 72 999.0 13.6 S 16.8 0.0 0.4
15:41 13.7 8.7 72 998.9 13.0 S 16.8 0.0 0.4
15:42 13.7 8.7 72 998.9 12.1 SE 16.8 0.0 0.4
15:43 13.6 8.7 72 998.9 11.4 S 16.8 0.0 0.4
15:44 13.6 8.9 73 998.9 12.1 S 16.8 0.0 0.4
15:45 13.6 8.9 73 998.8 12.1 S 16.8 0.0 0.4
15:46 13.7 9.0 73 998.9 7.6 E 14.5 0.0 0.4
15:48 13.7 9.0 73 999.0 11.4 SW 14.5 0.0 0.4
15:49 13.7 9.0 73 998.8 12.1 SE 14.5 0.0 0.4
15:50 13.7 9.0 73 998.8 10.7 S 14.5 0.0 0.4
15:51 13.7 9.0 73 998.8 10.7 NW 14.5 0.0 0.4
15:52 13.7 9.0 73 998.8 9.2 S 14.5 0.0 0.4
15:53 13.7 9.0 73 998.7 11.4 SW 14.5 0.0 0.4
15:54 13.7 9.2 74 998.8 9.8 SW 14.5 0.0 0.4
15:55 13.7 9.2 74 998.9 7.6 SW 14.5 0.0 0.4
15:56 13.7 9.2 74 998.8 11.4 S 14.5 0.0 0.4
15:57 13.7 9.2 74 998.9 15.9 SE 15.9 0.0 0.4
15:58 13.7 9.2 74 998.9 14.5 S 15.9 0.0 0.4
15:59 13.7 9.2 74 998.8 11.4 S 15.9 0.0 0.4
16:00 13.8 9.3 74 998.7 13.0 S 15.9 0.0 0.4
16:02 13.8 9.3 74 998.7 12.1 NW 15.9 0.0 0.4
16:03 13.8 9.3 74 998.7 12.1 SE 15.9 0.0 0.4
16:04 13.8 9.5 75 998.8 15.2 S 15.9 0.0 0.4
16:05 13.8 9.5 75 998.7 12.1 S 15.9 0.0 0.4
16:06 13.8 9.5 75 998.7 13.6 S 15.9 0.0 0.4
16:07 13.8 9.5 75 998.7 13.6 S 15.9 0.0 0.4
16:08 13.8 9.5 75 998.7 11.4 S 15.2 0.0 0.4
16:09 13.9 9.5 75 998.7 13.0 S 15.2 0.0 0.4
16:10 13.9 9.5 75 998.7 13.0 S 15.2 0.0 0.4
16:11 13.9 9.5 75 998.6 9.8 S 15.2 0.0 0.4
16:12 13.9 9.5 75 998.7 13.6 S 15.2 0.0 0.4
16:13 13.9 9.5 75 998.6 16.8 S 16.8 0.0 0.4
16:14 13.9 9.5 75 998.7 11.4 S 16.8 0.0 0.4
16:16 13.9 9.5 75 998.5 13.6 SW 16.8 0.0 0.4
16:17 13.8 9.5 75 998.7 12.1 S 16.8 0.0 0.4
16:18 13.8 9.5 75 998.5 13.6 SSW 16.8 0.0 0.4
16:19 13.8 9.5 75 998.6 10.7 S 16.8 0.0 0.4
16:20 13.8 9.6 76 998.5 10.7 S 16.8 0.0 0.4
16:21 13.8 9.6 76 998.6 11.4 S 16.8 0.0 0.4
16:22 13.7 9.6 76 998.5 12.1 SE 16.8 0.0 0.4
16:23 13.7 9.6 76 998.6 9.2 SSW 16.8 0.0 0.4
16:24 13.7 9.6 76 998.5 13.0 SW 14.5 0.0 0.4
16:25 13.7 9.6 76 998.6 11.4 S 14.5 0.0 0.4
16:26 13.7 9.6 76 998.5 9.8 S 13.6 0.0 0.4
16:27 13.7 9.6 76 998.6 9.2 S 13.6 0.0 0.4
16:28 13.6 9.5 76 998.5 10.7 S 13.6 0.0 0.4
16:29 13.6 9.5 76 998.5 10.7 S 13.6 0.0 0.4
16:30 13.6 9.5 76 998.5 12.1 S 13.6 0.0 0.4
16:31 13.6 9.5 76 998.5 13.0 SE 13.6 0.0 0.4
16:32 13.6 9.5 76 998.4 13.0 S 13.6 0.0 0.4
16:33 13.5 9.6 77 998.5 10.7 S 13.6 0.0 0.4
16:34 13.5 9.6 77 998.6 13.6 S 13.6 0.0 0.4
16:35 13.5 9.6 77 998.6 13.6 S 13.6 0.0 0.4
16:36 13.5 9.6 77 998.5 12.1 S 13.6 0.0 0.4
16:37 13.5 9.6 77 998.5 15.2 S 15.2 0.0 0.4
16:38 13.5 9.6 77 998.3 9.2 S 15.2 0.0 0.4
16:39 13.4 9.5 77 998.4 10.7 S 15.2 0.0 0.4
16:40 13.4 9.5 77 998.4 12.1 S 15.2 0.0 0.4
16:41 13.4 9.5 77 998.5 12.1 S 15.2 0.0 0.4
16:42 13.4 9.5 77 998.3 13.6 SW 15.2 0.0 0.4
16:44 13.4 9.5 77 998.3 13.0 S 15.2 0.0 0.4
16:45 13.3 9.5 78 998.4 10.7 S 15.2 0.0 0.4
16:46 13.4 9.6 78 998.4 9.8 NW 15.2 0.0 0.4
16:47 13.3 9.5 78 998.4 11.4 S 13.6 0.0 0.4
16:48 13.3 9.5 78 998.5 10.7 S 13.6 0.0 0.4
16:49 13.3 9.5 78 998.3 8.3 S 13.6 0.0 0.4
16:50 13.3 9.5 78 998.4 15.9 S 15.9 0.0 0.4
16:51 13.3 9.5 78 998.4 11.4 S 15.9 0.0 0.4
16:52 13.3 9.5 78 998.3 8.3 E 15.9 0.0 0.4
16:53 13.3 9.5 78 998.3 8.3 S 15.9 0.0 0.4
16:54 13.3 9.5 78 998.4 8.3 S 15.9 0.0 0.4
16:55 13.3 9.7 79 998.2 7.6 S 15.9 0.0 0.4
16:56 13.3 9.7 79 998.2 9.2 SE 15.9 0.0 0.4
16:58 13.3 9.7 79 998.1 10.7 SSE 15.9 0.0 0.4
16:59 13.3 9.7 79 998.1 10.7 SE 15.9 0.0 0.4
17:00 13.3 9.7 79 998.1 9.8 S 11.4 0.0 0.4
17:01 13.3 9.7 79 998.1 12.1 S 12.1 0.0 0.4
17:02 13.3 9.7 79 998.1 10.7 S 12.1 0.0 0.4
17:03 13.3 9.7 79 998.2 11.4 S 12.1 0.0 0.4
17:04 13.3 9.7 79 998.0 9.2 S 12.1 0.0 0.4
17:05 13.3 9.9 80 998.1 9.2 SE 12.1 0.0 0.4
17:06 13.3 9.9 80 998.0 9.2 SW 12.1 0.0 0.4
17:07 13.3 9.9 80 997.9 9.2 S 12.1 0.0 0.4
17:08 13.3 9.9 80 998.0 9.8 SE 12.1 0.0 0.4
17:09 13.3 9.9 80 998.1 13.0 S 13.0 0.0 0.4
17:10 13.3 9.9 80 998.0 10.7 S 13.0 0.0 0.4
17:11 13.3 9.9 80 998.0 10.7 S 13.0 0.0 0.4
17:12 13.3 9.9 80 998.0 7.6 S 13.0 0.0 0.4
17:13 13.3 9.9 80 998.0 10.7 SE 13.0 0.0 0.4
17:14 13.3 9.9 80 998.1 9.2 S 13.0 0.0 0.4
17:15 13.3 9.9 80 998.0 10.7 S 13.0 0.0 0.4
17:16 13.3 9.9 80 998.0 8.3 S 13.0 0.0 0.4
17:17 13.3 9.9 80 997.9 11.4 S 13.0 0.0 0.4
17:18 13.3 9.9 80 998.1 9.8 S 13.0 0.0 0.4
17:19 13.3 9.9 80 998.0 9.2 S 13.0 0.0 0.4
17:20 13.3 10.1 81 997.9 9.2 S 11.4 0.0 0.4
17:21 13.3 10.1 81 997.9 10.7 S 12.1 0.0 0.4
17:22 13.3 10.1 81 997.8 7.6 S 12.1 0.0 0.4
17:23 13.3 10.1 81 997.8 6.9 S 12.1 0.0 0.4
17:24 13.3 10.1 81 997.9 9.8 SE 12.1 0.0 0.4
17:25 13.3 10.1 81 998.1 13.6 S 13.6 0.0 0.4
17:26 13.3 10.1 81 998.1 13.0 S 13.6 0.0 0.4
17:27 13.3 10.1 81 998.0 12.1 SE 13.6 0.0 0.4
17:28 13.3 10.1 81 998.1 9.8 S 13.6 0.0 0.4
17:29 13.3 10.1 81 997.8 13.0 SE 13.6 0.0 0.4
17:30 13.3 10.1 81 998.0 12.1 S 13.6 0.0 0.4
17:31 13.3 10.1 81 998.1 9.8 S 13.6 0.0 0.4
17:32 13.3 10.1 81 998.0 14.5 S 14.5 0.0 0.4
17:34 13.3 10.1 81 997.9 11.4 S 16.8 0.0 0.4
17:35 13.3 10.3 82 998.0 11.4 SE 16.8 0.0 0.4
17:36 13.3 10.1 81 998.0 11.4 S 16.8 0.0 0.4
17:37 13.3 10.3 82 998.1 15.9 S 16.8 0.0 0.4
17:38 13.3 10.3 82 998.0 17.4 S 17.4 0.0 0.4
17:39 13.3 10.3 82 998.0 16.8 S 17.4 0.0 0.4
17:40 13.3 10.3 82 998.0 12.1 SW 17.4 0.0 0.4
17:41 13.3 10.3 82 997.8 9.2 S 17.4 0.0 0.4
17:42 13.3 10.3 82 998.0 13.0 SW 17.4 0.0 0.4
17:43 13.3 10.3 82 998.1 13.0 S 17.4 0.0 0.4
17:44 13.2 10.2 82 998.1 11.4 SE 17.4 0.0 0.4
17:45 13.2 10.2 82 998.2 10.7 SE 17.4 0.0 0.4
17:46 13.2 10.2 82 998.0 14.5 S 17.4 0.0 0.4
17:48 13.1 10.1 82 997.9 9.8 S 17.4 0.0 0.4
17:49 13.1 10.1 82 997.8 9.8 S 17.4 0.0 0.4
17:50 13.1 10.1 82 998.0 12.1 S 17.4 0.0 0.4
17:51 13.1 10.1 82 997.8 13.0 SE 17.4 0.0 0.4
17:52 13.0 10.0 82 997.9 12.1 S 17.4 0.0 0.4
17:53 13.0 10.0 82 997.8 11.4 SE 17.4 0.0 0.4
17:54 13.0 10.0 82 997.8 11.4 SE 17.4 0.0 0.4
17:55 13.0 10.0 82 997.9 11.4 SE 17.4 0.0 0.4
17:56 13.0 10.0 82 997.9 11.4 S 17.4 0.0 0.4
17:57 12.9 9.9 82 997.9 11.4 S 13.0 0.0 0.4
17:58 12.9 10.1 83 997.8 7.6 S 13.0 0.0 0.4
17:59 12.9 9.9 82 997.9 7.6 SE 13.0 0.8 0.4
18:00 12.9 10.1 83 997.8 9.2 S 13.0 0.8 0.4
18:02 12.8 10.0 83 997.7 9.8 S 14.5 0.8 0.4
18:03 12.8 10.0 83 997.8 11.4 S 14.5 0.8 0.4
18:04 12.8 10.0 83 997.9 10.7 S 14.5 0.0 0.4
18:05 12.8 10.0 83 997.6 13.6 S 14.5 0.0 0.4
18:06 12.8 10.0 83 997.7 10.7 S 14.5 0.0 0.4
18:07 12.8 10.0 83 997.8 10.7 S 14.5 0.0 0.5
18:08 12.8 10.0 83 997.8 10.7 S 14.5 0.8 0.5
18:09 12.8 10.0 83 997.7 12.1 S 14.5 0.8 0.5
18:10 12.8 10.0 83 997.7 10.7 S 14.5 0.8 0.5
18:11 12.8 10.0 83 997.6 12.1 SE 14.5 0.8 0.5
18:12 12.8 10.2 84 997.6 14.5 S 14.5 0.8 0.5
18:13 12.9 10.3 84 997.5 13.0 S 14.5 0.0 0.5
18:14 12.9 10.3 84 997.7 10.7 S 14.5 0.0 0.5
18:16 12.9 10.3 84 997.6 15.2 SE 15.2 0.0 0.5
18:17 12.9 10.3 84 997.7 15.2 SE 15.2 0.0 0.5
18:18 12.9 10.3 84 997.8 15.9 SE 15.9 0.0 0.5
18:19 12.9 10.3 84 997.5 14.5 S 15.9 0.0 0.5
18:20 12.9 10.4 85 997.5 14.5 S 15.9 0.0 0.5
18:21 12.9 10.4 85 997.5 15.2 SSW 15.9 0.0 0.5
18:22 12.9 10.4 85 997.5 15.2 SSW 15.9 0.0 0.5
18:23 12.9 10.4 85 997.6 12.1 S 15.9 0.0 0.5
18:24 13.0 10.5 85 997.4 14.5 SSW 15.9 0.0 0.5
18:25 13.0 10.5 85 997.4 14.5 S 15.9 0.0 0.5
18:26 13.0 10.5 85 997.5 14.5 S 15.9 0.0 0.5
18:27 13.0 10.5 85 997.4 11.4 SE 15.9 0.0 0.5
18:28 13.0 10.5 85 997.4 12.1 SE 15.9 0.0 0.5
18:30 13.0 10.7 86 997.5 14.5 SE 15.9 0.0 0.5
18:31 13.0 10.7 86 997.4 13.6 S 15.9 0.0 0.5
18:32 13.0 10.7 86 997.7 11.4 SE 15.9 0.0 0.5
18:33 13.0 10.7 86 997.3 12.1 SE 15.9 0.8 0.6
18:34 13.0 10.7 86 997.5 15.2 S 15.9 0.8 0.6
18:35 13.0 10.7 86 997.5 16.8 S 16.8 0.8 0.6
18:36 13.0 10.7 86 997.5 16.8 S 16.8 0.8 0.6
18:37 13.0 10.7 86 997.3 15.9 S 16.8 1.5 0.6
18:38 13.0 10.9 87 997.4 16.8 S 16.8 0.8 0.6
18:39 13.0 10.9 87 997.4 13.0 SSW 16.8 0.8 0.6
18:40 13.0 10.9 87 997.3 13.0 SE 16.8 0.8 0.6
18:41 13.0 10.9 87 997.4 12.1 SE 16.8 0.8 0.6
18:42 13.0 10.9 87 997.3 10.7 S 16.8 0.0 0.6
18:44 13.0 10.9 87 997.4 16.8 S 16.8 0.0 0.6
18:45 13.0 10.9 87 997.4 15.9 SE 16.8 0.0 0.6
18:46 13.0 10.9 87 997.4 14.5 S 16.8 0.0 0.6
18:47 13.0 10.9 87 997.4 13.6 S 16.8 0.0 0.7
18:48 13.0 10.9 87 997.3 13.6 S 16.8 0.8 0.7
18:49 13.0 11.1 88 997.4 15.2 S 16.8 0.8 0.7
18:50 13.0 11.1 88 997.4 15.2 S 16.8 0.8 0.7
18:51 13.0 11.1 88 997.4 15.9 E 16.8 0.8 0.7
18:52 13.0 11.1 88 997.3 17.4 S 17.4 0.8 0.7
18:53 13.0 11.1 88 997.3 14.5 S 17.4 0.0 0.7
18:54 13.0 11.1 88 997.2 15.9 S 17.4 0.8 0.8
18:55 13.0 11.1 88 997.2 15.2 S 17.4 0.8 0.8
18:56 13.0 11.1 88 997.2 18.3 S 18.3 0.8 0.8
18:58 13.0 11.1 88 997.2 13.6 SE 18.3 0.8 0.8
18:59 13.0 11.1 88 997.2 12.1 SE 18.3 0.0 0.8
19:00 13.0 11.1 88 997.2 12.1 SE 18.3 0.0 0.8
19:01 13.0 11.1 88 997.1 12.1 SE 18.3 0.8 0.8
19:02 13.0 11.1 88 997.1 12.1 SE 18.3 0.8 0.8
19:03 13.0 11.1 88 997.2 12.1 SE 18.3 0.8 0.8
19:04 13.0 11.1 88 997.2 12.1 SE 18.3 0.8 0.8
19:05 13.0 11.1 88 997.2 10.7 S 18.3 0.8 0.8
19:06 13.0 11.1 88 997.2 13.6 SSE 15.9 0.0 0.8
19:08 13.0 11.2 89 997.1 13.6 S 13.6 0.0 0.8
19:09 13.0 11.2 89 997.2 13.6 NW 13.6 0.0 0.8
19:10 13.0 11.2 89 997.1 14.5 S 14.5 0.0 0.8
19:11 13.0 11.2 89 997.0 17.4 SE 17.4 0.0 0.9
19:12 13.0 11.2 89 996.9 14.5 S 17.4 0.8 0.9
19:13 13.0 11.2 89 996.9 16.8 SE 17.4 0.8 0.9
19:14 13.0 11.2 89 996.9 15.2 S 17.4 0.8 0.9
19:15 13.0 11.2 89 997.0 14.5 SSE 17.4 0.8 0.9
19:16 13.0 11.2 89 997.0 14.5 SSE 17.4 0.8 0.9
19:17 13.0 11.2 89 996.9 16.8 SE 17.4 0.0 0.9
19:18 13.0 11.2 89 997.1 13.0 SE 17.4 0.0 0.9
19:19 13.0 11.2 89 996.9 13.0 SE 17.4 0.0 0.9
19:20 13.0 11.2 89 996.9 19.0 S 19.0 0.0 0.9
19:21 13.1 11.3 89 996.7 17.4 S 19.0 0.8 0.9
19:22 13.1 11.3 89 996.8 18.3 SE 19.0 0.8 0.9
19:23 13.1 11.5 90 997.0 13.6 S 19.0 0.8 0.9
19:24 13.1 11.5 90 996.8 15.9 S 19.0 0.8 0.9
19:25 13.1 11.5 90 996.7 13.6 S 19.0 0.8 0.9
19:27 13.1 11.5 90 996.8 16.8 S 19.0 0.8 1.0
19:28 13.1 11.5 90 996.8 17.4 SE 19.0 0.8 1.0
19:29 13.1 11.5 90 996.9 20.6 S 20.6 0.8 1.0
19:30 13.1 11.5 90 996.9 21.3 S 21.3 0.8 1.0
19:31 13.1 11.5 90 996.7 19.0 S 21.3 0.0 1.0
19:32 13.1 11.5 90 996.7 20.6 SE 21.3 0.0 1.0
19:33 13.1 11.5 90 996.8 19.0 SSE 21.3 0.0 1.0
19:34 13.1 11.5 90 996.8 17.4 S 21.3 0.0 1.0
19:35 13.1 11.5 90 996.8 17.4 S 21.3 0.0 1.0
19:36 13.1 11.5 90 996.7 14.5 S 21.3 0.0 1.0
19:37 13.2 11.8 91 996.7 16.8 SE 21.3 0.8 1.1
19:38 13.1 11.5 90 996.6 17.4 S 21.3 0.8 1.1
19:39 13.1 11.5 90 996.7 17.4 S 21.3 0.8 1.1
19:40 13.1 11.7 91 996.9 20.6 SE 21.3 0.8 1.1
19:41 13.1 11.7 91 996.6 16.8 S 21.3 0.8 1.1
19:42 13.1 11.7 91 996.6 15.2 S 20.6 0.0 1.1
19:43 13.1 11.7 91 996.6 20.6 SE 20.6 0.0 1.1
19:44 13.1 11.7 91 996.5 17.4 S 20.6 0.0 1.1
19:46 13.1 11.7 91 996.7 14.5 S 20.6 0.8 1.1
19:47 13.1 11.7 91 996.6 19.0 S 20.6 0.8 1.1
19:48 13.1 11.7 91 996.7 15.9 SSE 20.6 0.8 1.1
19:49 13.1 11.7 91 996.6 17.4 S 20.6 0.8 1.1
19:50 13.0 11.6 91 996.6 20.6 SE 20.6 0.0 1.2
19:51 13.0 11.6 91 996.5 16.8 S 20.6 0.8 1.2
19:52 13.0 11.6 91 996.6 13.6 S 20.6 0.8 1.2
19:53 13.0 11.6 91 996.4 14.5 S 20.6 0.8 1.2
19:54 13.0 11.6 91 996.4 14.5 S 20.6 0.8 1.2
19:55 13.0 11.6 91 996.5 12.1 S 20.6 1.5 1.3
19:56 13.0 11.6 91 996.4 15.9 S 20.6 0.8 1.3
19:57 13.0 11.6 91 996.3 13.6 S 20.6 0.8 1.3
19:58 13.0 11.6 91 996.5 16.8 S 20.6 0.8 1.3
19:59 13.0 11.6 91 996.3 13.6 S 20.6 0.8 1.3
20:00 13.0 11.6 91 996.2 15.2 SE 20.6 0.0 1.3
20:01 13.0 11.6 91 996.3 15.2 SE 20.6 0.0 1.3
20:02 13.0 11.6 91 996.3 15.2 SE 17.4 0.0 1.3
20:03 13.0 11.6 91 996.2 15.2 SE 17.4 0.0 1.3
20:05 13.0 11.6 91 996.0 17.4 S 17.4 0.0 1.3
20:06 13.0 11.6 91 996.1 13.0 S 17.4 0.0 1.3
20:07 13.0 11.6 91 996.0 9.2 S 17.4 0.0 1.3
20:08 13.0 11.6 91 996.1 11.4 S 17.4 0.0 1.3
20:09 12.9 11.5 91 996.0 15.2 S 17.4 0.0 1.3
20:10 13.0 11.6 91 996.1 13.0 SE 17.4 0.0 1.3
20:11 13.0 11.6 91 996.2 15.2 S 17.4 0.0 1.3
20:12 13.0 11.7 92 996.1 13.6 SE 17.4 0.0 1.3
20:13 13.0 11.6 91 996.1 13.0 S 17.4 0.0 1.3
20:14 13.0 11.6 91 996.1 15.9 S 17.4 0.0 1.3
20:15 13.0 11.7 92 996.1 21.3 SE 21.3 0.8 1.3
20:16 13.0 11.6 91 996.0 14.5 S 21.3 0.8 1.3
20:17 12.9 11.6 92 996.2 22.1 S 22.1 0.8 1.3
20:18 12.9 11.6 92 996.0 25.1 SE 25.1 0.8 1.3
20:19 12.9 11.6 92 996.0 16.8 SE 25.1 0.8 1.3
20:20 12.9 11.6 92 996.1 19.7 SE 25.1 0.8 1.4
20:21 12.9 11.6 92 996.0 13.6 S 25.1 0.8 1.4
20:22 12.9 11.6 92 996.0 20.6 S 25.1 0.8 1.4
20:24 12.9 11.6 92 995.8 11.4 SE 25.1 1.5 1.4
20:25 12.9 11.6 92 995.9 13.0 S 25.1 0.8 1.5
20:26 12.9 11.6 92 995.9 20.6 SE 25.1 1.5 1.5
20:27 12.9 11.6 92 995.8 12.1 SE 25.1 1.5 1.5
20:28 12.9 11.6 92 995.7 10.7 S 20.6 1.5 1.5
20:29 12.9 11.6 92 995.8 19.0 SE 20.6 0.8 1.5
20:30 12.9 11.6 92 995.7 17.4 S 20.6 0.8 1.5
20:31 12.9 11.6 92 995.7 17.4 S 20.6 0.0 1.5
20:32 12.9 11.6 92 995.7 22.1 S 22.1 0.0 1.6
20:33 12.9 11.6 92 995.6 17.4 SE 22.1 0.8 1.6
20:34 12.9 11.6 92 995.7 19.7 S 22.1 1.5 1.6
20:35 12.9 11.6 92 995.7 15.9 SE 22.1 2.3 1.7
20:36 12.9 11.6 92 995.7 15.9 SSW 22.1 3.0 1.8
20:37 12.9 11.6 92 995.8 19.7 S 22.1 3.8 1.8
20:38 12.9 11.6 92 995.6 20.6 SE 22.1 3.0 1.8
20:39 12.9 11.6 92 995.7 15.9 SE 22.1 3.0 1.9
20:40 12.8 11.5 92 995.5 19.7 SE 22.1 2.3 2.0
20:42 12.9 11.6 92 995.6 15.9 S 20.6 2.3 2.1
20:43 12.8 11.5 92 995.5 22.1 S 22.1 3.0 2.1
20:44 12.9 11.8 93 995.6 16.8 S 22.1 2.3 2.1
20:45 12.9 11.8 93 995.4 20.6 S 22.8 3.0 2.1
20:46 12.9 11.8 93 995.4 15.9 SE 22.8 2.3 2.2
20:47 12.9 11.8 93 995.4 22.1 S 22.8 2.3 2.2
20:48 12.8 11.7 93 995.5 21.3 SE 22.8 1.5 2.3
20:49 12.8 11.7 93 995.5 18.3 S 22.8 2.3 2.3
20:50 12.8 11.7 93 995.5 18.3 S 22.8 1.5 2.3
20:51 12.8 11.7 93 995.4 22.1 SSW 22.8 2.3 2.3
20:52 12.8 11.7 93 995.4 18.3 S 22.8 1.5 2.3
20:53 12.8 11.7 93 995.3 21.3 SE 22.8 2.3 2.4
20:54 12.8 11.7 93 995.3 18.3 S 22.8 1.5 2.4
20:55 12.7 11.6 93 995.5 15.2 SE 22.8 1.5 2.4
20:56 12.7 11.6 93 995.3 20.6 S 22.8 1.5 2.5
20:57 12.7 11.6 93 995.4 18.3 WSW 22.8 2.3 2.5
20:58 12.7 11.6 93 995.4 15.2 SE 22.8 1.5 2.5
20:59 12.7 11.6 93 995.3 19.7 S 22.8 2.3 2.6
21:01 12.7 11.6 93 995.3 17.4 SE 21.3 2.3 2.6
21:02 12.7 11.6 93 995.2 16.8 S 21.3 1.5 2.7
21:03 12.7 11.6 93 995.2 19.0 SE 20.6 2.3 2.7
21:04 12.7 11.6 93 995.2 20.6 S 20.6 1.5 2.7
21:05 12.7 11.6 93 995.3 15.2 SE 20.6 2.3 2.8
21:06 12.7 11.6 93 995.2 16.8 SE 20.6 1.5 2.8
21:07 12.7 11.6 93 995.2 13.0 SE 20.6 1.5 2.8
21:09 12.7 11.8 94 995.1 13.6 S 20.6 1.5 2.8
21:10 12.8 11.9 94 995.1 13.6 SE 20.6 0.8 2.8
21:11 12.8 11.9 94 995.1 13.0 SSW 20.6 1.5 2.9
21:12 12.8 11.9 94 995.2 16.8 SE 20.6 1.5 2.9
21:13 12.8 11.9 94 995.1 17.4 S 20.6 0.8 2.9
21:14 12.8 11.9 94 995.0 17.4 S 20.6 0.8 2.9
21:15 12.8 11.9 94 995.1 20.6 S 20.6 1.5 3.0
21:16 12.8 11.9 94 995.0 18.3 SE 20.6 0.8 3.0
21:17 12.8 11.9 94 994.9 23.5 SE 23.5 1.5 3.0
21:18 12.8 11.9 94 995.0 19.7 SE 23.5 1.5 3.0
21:19 12.8 11.9 94 995.1 20.6 SE 23.5 1.5 3.1
21:21 12.8 11.9 94 995.0 16.8 WSW 23.5 1.5 3.1
21:22 12.8 11.9 94 995.0 18.3 S 23.5 1.5 3.1
21:23 12.8 11.9 94 994.9 10.7 SE 23.5 1.5 3.1
21:24 12.8 11.9 94 994.9 15.2 SE 23.5 1.5 3.1
21:25 12.8 11.9 94 994.8 19.7 S 23.5 1.5 3.2
21:26 12.8 12.0 95 994.8 16.8 S 23.5 1.5 3.3
21:27 12.8 11.9 94 994.8 8.3 SE 20.6 1.5 3.3
21:28 12.8 11.9 94 994.8 17.4 SE 20.6 1.5 3.3
21:29 12.8 12.0 95 994.7 15.9 SE 20.6 2.3 3.3
21:30 12.8 12.0 95 994.8 14.5 SE 19.7 1.5 3.3
21:31 12.8 12.0 95 994.7 16.8 SE 19.7 2.3 3.4
21:32 12.8 12.0 95 994.7 13.6 S 19.7 1.5 3.4
21:33 12.8 12.0 95 994.7 12.1 S 19.7 2.3 3.5
21:34 12.8 12.0 95 994.8 11.4 S 19.7 1.5 3.5
21:35 12.8 12.0 95 994.7 13.6 S 19.7 2.3 3.5
21:36 12.8 12.0 95 994.6 16.8 NE 19.7 1.5 3.5
21:37 12.8 12.0 95 994.7 16.8 SE 17.4 2.3 3.6
21:38 12.8 12.0 95 994.5 13.6 S 19.0 2.3 3.7
21:40 12.8 12.0 95 994.7 9.2 S 19.0 2.3 3.8
21:41 12.8 12.0 95 994.6 19.7 S 19.7 3.8 3.9
21:42 12.8 12.0 95 994.5 13.6 SE 19.7 3.8 3.9
21:43 12.9 12.1 95 994.7 13.6 S 19.7 3.0 3.9
21:44 12.8 12.0 95 994.6 17.4 SE 19.7 3.0 4.0
21:45 12.9 12.1 95 994.4 15.2 S 25.1 3.8 4.0
21:46 12.9 12.1 95 994.4 11.4 S 25.1 2.3 4.1
21:47 12.9 12.1 95 994.6 13.6 ESE 25.1 2.3 4.1
21:48 12.8 12.2 96 994.4 10.7 E 25.1 2.3 4.1
21:49 12.8 12.2 96 994.4 13.0 SE 25.1 3.0 4.2
21:50 12.9 12.1 95 994.4 13.0 S 25.1 1.5 4.2
21:51 12.9 12.3 96 994.6 15.9 SE 25.1 1.5 4.2
21:52 12.9 12.3 96 994.4 19.7 S 25.1 0.8 4.2
21:53 12.9 12.3 96 994.4 13.6 S 25.1 1.5 4.2
21:54 12.9 12.3 96 994.5 13.6 S 25.1 0.8 4.2
21:55 12.9 12.3 96 994.5 17.4 SE 25.1 1.5 4.3
21:56 12.9 12.3 96 994.4 14.5 SE 19.7 2.3 4.3
21:57 12.9 12.3 96 994.3 13.0 SE 19.7 3.8 4.5
21:59 12.9 12.3 96 994.3 14.5 E 19.7 5.3 4.7
22:00 12.9 12.3 96 994.1 13.6 S 19.7 4.5 4.7
22:01 12.9 12.3 96 994.1 13.6 S 19.7 4.5 4.7
22:02 12.9 12.3 96 994.2 13.6 S 18.3 3.0 4.7
22:03 12.9 12.3 96 994.1 13.6 S 18.3 2.3 4.7
22:04 12.9 12.3 96 994.1 13.6 S 18.3 0.8 4.7
22:05 12.9 12.3 96 994.1 19.0 SE 19.0 0.8 4.8
22:06 12.9 12.3 96 994.3 22.1 SE 22.1 0.8 4.9
22:07 12.9 12.3 96 994.3 22.1 SE 22.1 1.5 4.9
22:08 13.0 12.4 96 994.1 16.8 SE 22.1 1.5 4.9
22:09 13.0 12.4 96 994.1 18.3 SE 22.1 1.5 4.9
22:10 13.0 12.4 96 994.1 15.2 S 22.1 1.5 4.9
22:11 13.0 12.4 96 994.2 14.5 S 22.1 0.8 4.9
22:12 13.0 12.4 96 994.2 18.3 SE 22.1 0.8 4.9
22:13 13.0 12.4 96 994.2 17.4 S 22.1 0.8 4.9
22:14 13.0 12.5 97 994.1 17.4 SE 22.1 0.8 4.9
22:15 13.0 12.5 97 994.1 19.7 S 22.1 0.8 4.9
22:16 13.1 12.6 97 994.0 20.6 S 22.1 0.8 4.9
22:18 13.1 12.6 97 994.1 15.2 S 22.1 0.8 5.0
22:19 13.1 12.6 97 993.9 16.8 SE 22.1 0.8 5.0
22:20 13.1 12.6 97 993.9 17.4 S 22.1 0.8 5.0
22:21 13.1 12.6 97 994.0 16.8 SE 22.1 0.8 5.0
22:22 13.1 12.6 97 993.9 15.9 S 20.6 0.8 5.0
22:23 13.1 12.6 97 993.9 15.2 S 20.6 0.8 5.0
22:24 13.1 12.6 97 993.9 15.2 S 20.6 0.8 5.0
22:25 13.1 12.6 97 993.9 13.6 S 20.6 0.8 5.0
22:26 13.1 12.6 97 993.9 13.6 S 19.7 0.8 5.0
22:27 13.1 12.6 97 993.8 10.7 SE 19.7 0.0 5.0
22:28 13.1 12.6 97 993.8 10.7 SE 17.4 0.0 5.0
22:29 13.1 12.6 97 993.7 14.5 SE 17.4 0.0 5.0
22:30 13.1 12.6 97 993.7 14.5 S 17.4 0.8 5.1
22:31 13.1 12.6 97 993.8 18.3 E 18.3 0.8 5.1
22:32 13.2 12.7 97 993.6 17.4 S 18.3 0.8 5.1
22:33 13.2 12.7 97 993.7 17.4 S 18.3 0.8 5.1
22:34 13.2 12.7 97 993.6 17.4 SE 18.3 0.8 5.1
22:35 13.1 12.6 97 993.7 19.7 SE 19.7 0.8 5.2
22:37 13.2 12.9 98 993.7 13.0 SE 19.7 0.8 5.2
22:38 13.2 12.9 98 993.5 13.0 SE 19.7 0.8 5.2
22:39 13.2 12.7 97 993.6 10.7 S 19.7 0.8 5.2
22:40 13.2 12.7 97 993.8 13.0 S 19.7 0.0 5.2
22:41 13.2 12.7 97 993.7 12.1 SE 19.7 0.0 5.2
22:42 13.2 12.9 98 993.6 16.8 SE 19.7 0.8 5.2
22:43 13.2 12.9 98 993.5 15.2 S 19.7 0.8 5.2
22:44 13.2 12.9 98 993.7 16.8 SE 19.7 0.8 5.2
22:45 13.2 12.9 98 993.4 14.5 E 17.4 0.8 5.2
22:46 13.2 12.9 98 993.5 15.9 SE 17.4 0.8 5.2
22:47 13.2 12.9 98 993.3 19.0 SE 19.0 0.0 5.2
22:48 13.2 12.9 98 993.4 13.0 SE 19.0 0.0 5.3
22:49 13.2 12.9 98 993.2 18.3 SE 19.0 0.8 5.3
22:50 13.3 13.0 98 993.4 15.9 ESE 19.0 0.8 5.3
22:51 13.3 13.0 98 993.3 22.8 SE 22.8 0.8 5.3
22:52 13.3 13.0 98 993.3 17.4 S 22.8 0.8 5.4
22:53 13.3 13.0 98 993.3 16.8 S 22.8 1.5 5.4
22:54 13.3 13.0 98 993.3 15.2 S 22.8 1.5 5.4
22:56 13.3 13.0 98 993.2 15.2 SE 22.8 1.5 5.5
22:57 13.4 13.1 98 993.2 17.4 S 22.8 2.3 5.5
22:58 13.4 13.1 98 993.2 14.5 S 22.8 1.5 5.5
22:59 13.4 13.3 99 993.2 18.3 S 22.8 1.5 5.5
23:00 13.4 13.3 99 993.2 13.0 S 22.8 1.5 5.5
23:01 13.4 13.3 99 993.1 14.5 S 19.7 1.5 5.7
23:02 13.4 13.3 99 993.1 13.6 S 19.7 2.3 5.7
23:03 13.5 13.4 99 993.2 12.1 WSW 19.7 3.0 5.8
23:04 13.5 13.4 99 993.2 15.9 SE 19.7 3.0 5.8
23:05 13.5 13.4 99 993.0 12.1 SE 19.7 3.0 5.9
23:06 13.5 13.4 99 993.1 11.4 S 19.7 3.8 5.9
23:08 13.6 13.5 99 993.0 17.4 S 18.3 1.5 5.9
23:09 13.6 13.5 99 993.1 17.4 S 18.3 1.5 5.9
23:10 13.6 13.5 99 993.1 16.8 SE 17.4 1.5 5.9
23:11 13.6 13.5 99 993.1 17.4 S 17.4 0.8 5.9
23:12 13.8 13.7 99 993.3 15.9 SE 17.4 1.5 6.0
23:13 13.7 13.6 99 992.9 13.0 SE 17.4 3.8 6.2
23:14 13.7 13.6 99 993.2 13.6 S 17.4 3.8 6.2
23:15 13.7 13.6 99 993.1 13.0 S 17.4 4.5 6.3
23:16 13.8 13.7 99 993.1 19.7 WSW 19.7 5.3 6.4
23:17 13.8 13.7 99 993.0 18.3 SE 19.7 5.3 6.4
23:18 13.8 13.7 99 993.1 15.9 SE 19.7 3.0 6.4
23:19 13.8 13.7 99 993.0 17.4 S 19.7 2.3 6.4
23:20 13.9 13.8 99 993.2 14.5 SE 19.7 1.5 6.5
23:21 13.9 13.8 99 993.1 14.5 S 19.7 1.5 6.5
23:23 14.0 13.9 99 993.1 22.1 S 22.1 0.8 6.6
23:24 14.0 13.9 99 993.1 15.9 S 22.1 1.5 6.6
23:25 14.1 14.0 99 992.9 11.4 WSW 22.1 1.5 6.6
23:26 14.1 14.0 99 992.8 11.4 S 22.1 0.8 6.6
23:27 14.1 14.0 99 992.9 19.0 SE 22.1 0.8 6.6
23:28 14.1 14.0 99 992.9 13.0 S 22.1 0.8 6.6
23:29 14.2 14.1 99 992.9 13.6 S 22.1 0.8 6.6
23:30 14.2 14.1 99 993.0 11.4 WSW 22.1 0.8 6.6
23:31 14.2 14.1 99 993.0 11.4 WSW 22.1 0.8 6.6
23:32 14.2 14.1 99 992.8 20.6 S 22.1 1.5 6.7
23:33 14.2 14.1 99 992.9 13.6 SE 22.1 1.5 6.7
23:34 14.3 14.2 99 992.9 16.8 S 20.6 0.8 6.7
23:35 14.3 14.2 99 992.9 14.5 S 20.6 1.5 6.7
23:36 14.3 14.2 99 992.8 13.6 S 20.6 1.5 6.7
23:37 14.3 14.2 99 992.9 19.7 SE 20.6 1.5 6.8
23:38 14.3 14.2 99 992.8 11.4 S 20.6 1.5 6.8
23:39 14.3 14.2 99 992.9 10.7 ESE 20.6 1.5 6.8
23:40 14.4 14.3 99 992.7 10.7 SE 20.6 0.8 6.8
23:42 14.4 14.3 99 993.0 15.9 WSW 19.7 0.0 6.8
23:43 14.4 14.3 99 992.8 18.3 WSW 19.7 0.0 6.8
23:44 14.4 14.3 99 992.9 15.9 S 19.7 0.0 6.9
23:45 14.5 14.4 99 992.8 15.2 S 19.7 0.8 6.9
23:46 14.5 14.4 99 992.8 12.1 S 19.7 0.8 6.9
23:47 14.5 14.4 99 992.8 16.8 S 18.3 0.8 6.9
23:48 14.5 14.4 99 992.9 16.8 S 18.3 0.8 6.9
23:49 14.5 14.4 99 992.8 14.5 S 18.3 1.5 6.9
23:50 14.5 14.4 99 992.8 14.5 S 18.3 0.8 6.9
23:51 14.5 14.4 99 992.7 16.8 S 18.3 0.8 6.9
23:52 14.5 14.4 99 992.7 16.8 WSW 18.3 0.8 6.9
23:53 14.6 14.5 99 992.8 13.0 S 18.3 0.8 6.9
23:54 14.6 14.5 99 992.9 19.0 S 19.0 0.0 6.9
23:55 14.6 14.5 99 992.7 11.4 WNW 19.0 0.0 6.9
23:56 14.6 14.5 99 992.7 19.7 NW 19.7 0.0 6.9
23:57 14.6 14.5 99 992.8 16.8 WSW 19.7 0.0 6.9
23:58 14.6 14.5 99 992.7 18.3 SE 19.7 0.0 6.9
23:59 14.7 14.6 99 992.8 15.2 WSW 19.7 0.0 6.9

UK - WEATHER STATION TOPSITES - UK World Weather Websites

This is a private weather station, never base important decisions or events on data from this weather station. Although every effort has been made to make the data as accurate as possible it does not meet MetOffice standards. It is proved as a guide of local weather conditions. We accept no liability for any loss which may arise from use of the data.

Copyright © Carnkie Weather 2009 - 2019.